GFSNE_850_thetae_024.txt.gz
Theta_e
296 296 296 296 296 295 295 294 293 293 293 292 292 294 294 295 296 297 298 298 297 297 297 296 296 295 293 293 293 293 295 297 300 301 299 300 299 299
295 295 295 295 295 295 295 294 294 294 293 293 292 292 293 294 294 294 294 295 296 296 296 296 296 295 295 294 293 293 293 296 297 299 300 300 300 300
293 293 293 293 293 293 293 292 292 292 292 292 292 293 293 293 293 293 293 293 293 293 294 293 293 293 293 293 293 292 290 291 294 296 299 300 300 300
291 290 291 291 291 291 291 290 290 291 291 290 291 291 291 291 291 291 291 292 292 293 294 294 293 293 293 293 292 292 290 289 290 293 296 298 300 299
289 289 289 289 289 289 289 289 289 289 289 289 289 289 289 289 290 290 290 290 291 292 292 292 292 293 292 292 292 292 291 290 288 289 292 295 297 298
286 287 287 288 288 288 289 289 289 288 288 288 288 288 288 288 289 289 289 290 290 291 291 291 292 292 292 292 291 291 290 290 289 288 288 290 293 296
286 285 286 287 287 287 287 287 287 286 286 286 286 287 287 288 289 289 289 289 290 291 291 291 291 292 292 292 291 290 291 291 291 290 288 288 288 290
285 285 286 286 287 287 287 286 286 285 285 285 285 284 284 285 286 287 287 287 288 288 289 289 289 289 289 290 291 291 291 291 291 291 291 290 288 288
283 284 284 285 285 285 285 285 286 285 285 284 284 284 284 284 285 285 285 286 286 287 288 288 288 288 289 289 289 290 290 290 290 291 291 291 290 289
282 282 282 283 283 283 283 283 283 284 284 284 285 285 286 285 285 286 286 286 286 286 286 286 287 287 287 287 287 287 288 288 288 289 290 290 290 290
281 281 282 281 282 282 283 283 283 283 284 284 284 285 284 284 285 285 285 285 284 285 285 287 287 287 287 287 287 287 287 287 287 287 287 288 289 290
281 281 281 281 282 283 283 283 283 284 283 283 283 283 283 283 284 284 284 284 284 284 284 285 285 286 287 287 287 287 287 287 287 288 288 288 287 287
280 280 281 282 283 282 282 282 282 282 282 282 282 283 284 285 285 285 285 285 285 285 286 286 286 286 287 287 287 287 287 287 288 289 289 289 289 288
279 280 280 281 281 281 281 281 281 281 282 283 283 284 285 286 287 287 287 287 287 287 287 287 287 287 287 286 287 287 288 288 289 289 289 289 288 288
279 279 281 281 281 281 282 282 282 282 283 283 283 284 284 285 286 286 286 287 287 287 287 287 287 286 286 286 287 287 287 287 288 289 289 288 289 288
279 280 281 280 280 281 281 281 281 281 282 282 282 283 284 285 285 286 287 287 286 287 287 287 286 286 286 286 286 286 286 286 287 288 288 288 288 288
279 280 279 279 279 279 280 280 280 280 280 281 281 282 283 283 285 286 287 286 286 287 287 288 288 287 286 286 286 286 286 286 286 287 288 289 288 288
278 278 278 278 278 278 278 278 279 279 279 280 280 281 281 282 284 285 286 287 287 287 287 289 288 288 287 286 286 286 286 286 287 287 288 288 288 288
277 277 277 277 277 277 277 277 278 279 279 279 280 280 281 282 283 284 285 285 286 287 288 287 287 288 287 287 287 287 286 286 286 287 287 288 289 288
276 276 276 276 276 276 276 277 278 278 278 278 279 280 280 281 282 282 283 284 284 286 286 285 285 286 286 286 286 286 286 286 286 286 286 287 288 288
275 275 275 275 275 275 275 276 276 277 277 277 278 279 280 281 281 281 282 282 283 284 284 283 283 283 284 285 286 285 285 284 285 285 285 286 287 287
274 274 274 274 274 274 274 275 275 276 276 276 277 278 279 280 280 281 281 281 282 282 283 283 283 283 283 284 286 285 284 283 283 283 284 285 285 286
273 273 274 274 274 274 274 274 274 274 274 275 276 277 278 278 279 280 280 280 281 280 281 283 282 283 283 283 283 284 283 282 282 283 283 283 284 284

GFSNE_850_thetae_027.txt.gz
Theta_e
294 294 295 295 295 295 295 295 295 294 293 293 292 291 292 292 294 295 295 297 297 298 299 299 296 297 297 299 298 295 294 294 295 299 307 305 302 301
291 292 292 292 293 293 293 293 293 292 293 293 292 291 291 293 293 293 293 293 295 295 295 296 296 296 296 296 296 296 294 293 293 295 299 301 301 301
291 291 290 290 290 291 291 291 291 291 291 291 291 290 290 291 291 291 291 292 293 293 294 293 294 293 293 293 293 293 293 293 292 291 293 296 298 299
290 290 288 287 288 289 289 289 289 289 290 290 290 290 290 290 290 290 290 291 291 291 292 293 293 294 293 293 293 293 293 292 292 291 290 291 294 297
289 289 288 286 285 287 288 288 288 288 289 289 289 289 289 289 289 289 288 288 289 290 290 291 292 292 293 293 293 293 292 292 292 291 291 289 290 293
288 287 286 286 285 286 287 287 287 287 287 287 287 286 286 286 287 288 288 289 290 290 290 291 291 291 291 292 292 292 292 292 291 291 290 290 289 289
287 286 285 284 285 286 286 287 287 287 287 286 286 285 285 285 285 287 287 288 289 290 291 291 291 291 291 291 292 291 291 291 291 290 291 291 290 289
285 284 283 283 283 284 285 284 285 286 286 286 286 285 285 284 284 284 285 285 285 288 287 288 289 289 290 290 289 289 291 291 291 291 291 291 291 290
283 282 281 281 281 282 282 282 283 283 283 284 284 284 284 284 285 285 285 285 285 285 285 286 286 287 288 288 288 288 289 289 290 290 290 290 290 291
282 282 281 281 281 281 282 282 282 283 283 283 283 283 284 284 285 285 285 285 285 286 286 286 286 286 286 286 286 287 287 287 287 288 289 288 288 288
282 281 280 280 280 281 282 282 283 283 283 283 284 284 284 284 284 284 284 284 284 284 284 284 285 285 286 286 286 287 287 287 287 287 287 287 287 287
280 280 279 280 281 282 282 282 281 282 282 282 283 283 283 283 283 283 284 284 284 284 284 284 284 284 284 285 286 286 287 287 287 287 287 287 287 287
279 279 279 280 280 281 281 281 281 281 281 281 282 283 284 284 285 286 286 286 285 285 285 285 285 286 285 286 286 286 287 287 287 287 288 288 288 288
278 279 280 280 281 281 281 282 282 281 282 282 282 283 284 284 285 285 286 286 286 286 287 287 286 286 287 287 287 287 286 287 288 288 288 289 289 289
279 280 280 280 280 280 281 281 281 282 281 282 282 283 283 284 285 285 286 286 287 287 287 287 287 287 287 287 286 286 286 287 287 287 287 289 288 288
279 279 279 279 279 279 279 280 280 280 280 281 281 282 282 283 284 285 286 286 286 286 286 287 287 286 286 286 286 286 286 286 286 286 286 286 288 288
278 278 278 278 278 278 278 278 279 279 279 280 280 281 281 283 284 285 286 287 287 286 287 287 287 288 287 286 286 286 286 286 286 286 286 286 287 288
277 277 277 277 277 277 277 278 278 278 278 279 280 280 281 282 283 284 285 285 286 287 288 287 288 288 288 287 286 286 285 285 285 286 287 287 287 288
276 276 276 276 275 276 276 277 277 277 278 278 279 280 281 281 282 282 283 284 285 286 286 285 285 286 286 286 286 287 287 286 286 286 286 286 287 287
275 275 275 275 275 275 275 276 276 276 277 277 279 279 280 280 281 281 282 282 283 284 284 284 284 284 284 284 285 285 286 286 286 286 286 286 286 287
274 274 274 274 274 274 274 275 275 276 276 277 278 279 279 279 280 280 281 281 282 282 283 282 283 282 283 284 285 285 284 284 284 284 285 285 286 286
274 273 274 274 273 274 274 274 274 274 274 275 277 278 278 279 279 279 279 280 280 280 281 282 282 283 282 283 284 284 283 283 283 283 283 283 285 285
276 273 273 273 273 273 273 273 273 273 273 274 276 276 277 278 278 278 278 278 279 279 280 282 282 282 283 282 283 283 283 282 283 283 283 282 283 283

GFSNE_850_thetae_033.txt.gz
Theta_e
291 290 290 291 291 290 289 288 288 289 290 291 291 291 290 290 290 290 291 292 293 293 293 296 299 299 299 296 295 295 297 298 299 299 298 297 306 307
290 289 289 289 290 289 288 288 288 286 288 288 289 289 289 289 289 290 290 290 290 291 292 292 293 297 298 297 297 296 296 296 297 298 299 297 299 304
289 289 289 289 288 288 288 287 287 286 285 285 287 288 288 288 288 288 289 289 290 290 291 291 292 292 294 296 296 295 294 295 293 294 296 297 295 297
288 288 287 287 286 286 286 286 285 285 285 285 285 287 288 287 287 287 287 287 288 289 289 290 291 292 292 292 294 294 293 293 293 293 293 294 295 294
288 287 287 286 285 284 284 283 283 284 285 286 286 287 287 287 286 286 286 286 285 286 287 287 289 290 291 292 293 293 293 293 293 293 293 292 292 292
287 286 285 284 284 283 282 282 283 283 284 284 285 286 286 286 286 286 286 285 285 285 285 286 287 288 289 290 291 291 292 292 293 292 292 292 292 292
285 284 284 283 282 282 281 281 281 281 282 282 283 283 284 285 286 285 285 285 285 284 284 286 289 289 289 290 290 290 291 291 291 292 292 292 292 291
283 283 282 282 281 281 281 280 280 281 281 281 282 282 283 283 284 284 284 284 284 284 284 285 286 288 289 289 289 290 291 291 291 292 292 291 291 291
282 282 281 280 280 279 279 280 280 281 281 282 282 282 282 282 283 283 283 283 283 283 284 284 285 285 286 287 288 289 289 290 290 290 291 291 291 291
280 279 279 279 279 279 279 280 281 281 282 281 281 282 282 283 283 283 283 283 283 283 284 284 284 284 285 285 285 286 287 287 288 288 288 289 289 289
280 279 279 279 280 280 280 281 281 281 281 281 281 281 281 282 283 284 284 283 283 283 283 283 283 284 284 284 285 285 286 286 286 286 287 287 287 287
279 279 280 280 280 280 280 280 281 281 282 281 281 281 281 281 282 282 283 283 282 282 284 284 284 284 284 285 285 285 285 286 286 286 286 286 286 286
278 279 279 279 279 280 280 280 280 281 281 281 282 282 282 283 283 283 283 283 284 284 284 284 285 285 285 285 286 286 285 285 285 286 287 287 287 286
278 278 278 278 279 279 279 279 279 280 281 281 281 282 282 283 283 284 284 285 285 285 286 285 285 285 285 285 285 286 286 286 287 287 286 287 287 287
277 277 277 278 278 278 278 279 279 279 279 280 280 280 281 282 283 283 284 285 285 286 286 286 286 286 285 285 285 286 286 286 286 286 286 287 287 288
277 277 277 277 277 277 278 278 278 278 278 279 279 280 281 282 283 283 285 286 286 286 285 285 286 286 286 286 286 285 285 286 286 286 286 287 287 287
276 276 277 277 276 276 276 277 277 277 278 278 279 280 281 282 282 283 284 285 286 286 286 286 287 287 286 286 286 286 286 286 285 286 286 287 287 287
275 275 275 276 275 275 275 276 276 276 277 278 279 280 280 281 282 282 283 284 285 285 285 285 285 286 286 286 286 286 286 286 286 285 285 285 286 286
275 274 274 274 274 274 274 274 274 274 275 277 278 279 280 280 281 281 282 283 283 284 284 284 284 284 285 284 285 285 286 286 286 285 285 285 285 285
277 274 274 274 274 274 274 273 273 273 274 276 277 278 279 279 280 280 280 281 281 282 282 283 283 283 283 284 283 284 284 284 284 284 285 285 285 286
277 277 274 274 274 273 273 273 273 273 274 275 276 277 277 278 278 279 279 279 279 280 280 281 282 282 282 282 282 283 284 283 283 283 283 284 284 285
276 277 276 274 274 274 274 273 274 274 273 274 275 275 276 276 277 277 278 278 278 278 279 280 281 282 282 282 282 283 283 282 282 282 283 282 283 284
277 276 276 276 275 274 274 274 274 274 274 273 273 274 274 274 276 276 276 277 277 277 278 280 281 282 282 282 282 283 282 282 281 282 282 282 282 282

GFSNE_850_thetae_036.txt.gz
Theta_e
290 290 289 289 289 290 290 288 287 287 288 288 288 287 287 288 289 290 289 290 290 291 291 292 293 297 300 301 301 300 298 297 296 297 298 298 302 305
289 289 288 288 289 289 288 288 287 287 286 286 286 286 285 286 287 288 289 289 289 289 290 290 291 292 295 298 298 297 296 294 295 297 297 297 298 301
287 288 288 288 287 287 287 286 285 285 285 285 285 285 285 285 287 288 287 287 287 288 289 289 290 290 292 293 296 295 295 295 296 296 296 296 296 299
288 288 288 287 287 286 285 284 284 283 283 284 284 284 285 285 288 288 286 286 286 287 287 287 289 289 290 291 292 295 296 296 296 294 293 294 295 296
288 288 287 286 285 284 284 283 282 282 282 283 283 284 284 285 286 286 286 286 286 286 285 285 286 287 288 289 291 292 293 294 293 293 293 292 293 294
287 286 285 284 283 283 282 282 282 281 281 280 281 282 283 284 285 286 286 286 286 285 285 285 285 286 286 287 289 290 291 292 292 293 293 293 292 292
285 284 283 282 282 282 282 281 281 281 280 280 281 281 281 282 283 284 285 285 285 285 285 284 284 285 288 289 289 289 290 290 292 292 292 292 292 292
283 282 281 280 280 280 280 279 279 279 280 280 281 281 281 281 282 282 283 283 284 284 284 284 284 284 287 288 289 289 290 290 290 291 292 292 292 292
281 280 280 280 280 280 280 280 280 280 280 281 281 282 281 282 282 282 282 282 283 283 283 283 283 284 285 286 288 289 289 289 290 291 291 291 292 292
281 280 279 280 280 280 280 280 281 281 281 281 281 281 281 281 281 282 282 282 283 283 283 283 283 283 284 284 285 286 288 289 289 289 290 290 291 291
280 279 279 279 280 280 280 280 280 281 281 281 281 281 281 281 281 282 283 283 283 283 283 283 283 283 283 284 284 285 285 286 288 289 289 289 289 289
280 279 279 279 279 279 279 279 279 280 280 281 281 281 281 281 281 281 281 282 283 282 282 283 284 284 284 284 285 285 285 285 285 286 286 286 286 287
278 278 278 278 278 278 279 279 279 279 279 280 281 281 282 282 282 282 282 282 282 282 282 283 284 284 284 285 285 285 285 285 285 285 286 286 286 286
278 278 277 277 277 278 278 278 278 279 279 279 280 280 281 281 282 283 283 284 284 284 285 285 284 285 285 285 285 285 286 286 285 285 285 285 286 287
278 277 277 277 277 278 277 278 278 278 278 279 279 279 280 281 282 283 283 284 285 285 285 285 285 285 284 285 284 285 286 286 286 286 287 286 286 287
278 276 276 277 276 276 276 276 277 277 277 278 279 280 280 281 282 283 284 285 285 286 286 285 285 285 285 285 285 286 285 285 286 286 286 286 287 288
278 275 275 276 276 276 275 276 276 276 277 278 279 279 280 281 282 283 283 284 285 285 285 285 285 286 286 286 286 285 285 285 285 285 285 286 287 287
278 276 275 275 275 275 275 275 274 274 276 277 278 279 279 280 281 281 282 283 284 284 284 284 285 285 286 286 285 285 285 286 286 286 285 285 286 286
278 278 275 275 275 274 274 274 274 273 274 276 277 278 278 279 280 280 281 281 282 283 283 283 284 284 284 284 285 285 285 285 286 286 285 285 285 285
277 278 277 275 275 274 274 274 274 274 273 275 276 277 277 278 278 279 279 279 280 281 281 282 282 282 283 283 283 284 284 284 284 284 285 285 285 285
277 277 278 277 275 275 274 274 274 274 274 273 274 275 275 276 277 278 278 278 278 278 279 280 281 282 282 282 282 282 283 283 283 283 283 283 284 284
278 277 276 277 277 276 275 275 274 274 274 274 274 274 274 274 275 276 276 277 277 277 278 279 281 282 282 282 282 282 283 282 282 282 283 282 282 283
279 278 277 276 276 275 275 275 275 275 275 274 274 274 274 274 274 275 275 275 276 276 277 279 280 281 281 282 282 282 282 282 281 281 282 282 282 282

GFSNE_850_thetae_039.txt.gz
Theta_e
290 289 289 289 289 288 289 289 288 288 288 288 288 288 288 288 288 289 289 287 289 289 289 290 290 291 294 300 302 304 300 301 300 302 303 303 305 305
288 288 287 287 288 288 288 287 287 287 287 287 286 287 286 287 287 287 288 288 288 288 288 288 289 290 291 293 297 299 300 298 297 297 297 300 305 307
288 288 288 288 288 287 287 286 286 285 285 285 285 285 286 286 286 287 287 288 288 287 286 287 288 288 290 290 292 295 297 297 298 296 296 296 304 305
288 288 288 288 287 286 285 285 284 284 284 284 284 285 285 285 286 286 287 287 287 287 285 286 286 286 288 289 290 291 295 295 296 297 296 300 297 300
288 288 287 286 285 285 284 284 284 283 283 283 283 283 283 283 284 285 286 287 287 286 286 286 285 285 286 287 289 290 291 294 295 295 295 296 298 296
288 286 285 284 283 283 283 283 283 283 282 282 282 282 282 283 283 284 284 286 286 286 286 286 285 285 285 286 287 288 289 292 294 295 295 293 293 293
286 284 283 282 281 280 281 281 281 281 281 281 281 282 282 282 283 283 283 284 285 286 286 286 286 285 286 285 288 288 288 290 292 292 293 294 294 292
284 282 281 281 280 280 280 280 280 279 280 281 282 282 282 282 283 283 283 283 284 285 285 285 285 286 286 286 288 289 289 289 290 292 292 292 293 293
282 281 281 280 280 279 279 280 281 281 281 281 281 282 282 282 283 282 283 283 283 284 284 284 285 285 285 285 286 288 289 290 290 291 293 293 292 291
281 280 279 279 279 279 280 280 281 280 280 281 281 281 282 282 282 282 282 282 282 283 283 283 284 285 284 284 284 285 288 289 289 290 291 291 292 292
281 279 279 278 278 279 279 279 279 280 280 280 280 281 281 281 281 281 282 283 284 284 284 283 284 285 284 283 284 284 285 286 288 289 289 290 290 291
279 279 278 278 277 278 278 278 278 279 279 279 279 280 281 282 282 282 281 282 283 283 284 283 284 284 285 285 284 285 284 285 285 286 288 289 289 289
279 278 278 278 277 277 277 277 278 278 279 279 279 280 280 281 281 282 282 282 282 283 283 283 284 284 284 286 285 285 285 285 285 285 285 286 287 288
279 278 277 277 278 278 277 277 278 278 278 278 279 279 279 280 281 282 282 283 283 284 284 284 284 284 284 285 286 285 286 286 286 285 284 285 285 286
279 278 276 276 278 276 276 276 277 277 277 277 278 279 280 281 281 282 283 283 284 284 285 285 285 285 285 285 285 286 285 286 286 286 284 284 285 285
278 278 276 276 276 276 275 276 276 275 276 277 278 279 280 281 282 282 283 284 285 285 285 286 285 285 285 285 285 285 286 286 286 286 286 286 286 286
278 279 277 276 276 276 275 275 275 275 276 277 278 279 279 280 281 282 283 283 284 284 285 285 285 285 285 285 286 286 286 286 285 285 285 286 286 286
278 278 278 277 276 275 275 275 275 275 275 276 277 278 278 279 279 280 281 282 282 283 283 284 285 286 286 285 285 285 285 285 286 286 286 285 286 286
279 278 279 278 276 275 275 275 274 274 274 275 276 277 277 278 278 278 279 279 280 280 281 282 283 284 285 286 285 285 285 285 285 285 285 285 285 286
280 278 278 278 277 276 275 275 275 275 274 274 274 275 275 276 277 277 277 278 278 279 280 280 281 282 283 283 283 284 284 284 284 284 285 285 285 285
280 279 278 278 278 277 276 276 275 275 275 274 274 274 274 274 275 276 276 277 277 277 278 279 280 281 282 282 282 283 283 283 283 283 283 283 283 284
280 280 279 278 277 277 276 276 275 275 275 275 274 274 274 274 274 275 275 275 276 276 277 279 280 281 282 282 283 282 283 283 282 282 283 283 283 284
281 280 280 279 278 277 277 276 275 275 274 274 274 274 274 274 273 273 274 274 274 275 277 279 280 281 281 282 282 282 282 282 282 282 282 282 282 282

GFSNE_850_thetae_042.txt.gz
Theta_e
294 294 293 292 291 291 290 290 290 290 290 289 289 289 289 289 289 288 289 289 289 289 288 289 289 289 289 291 293 300 304 306 307 307 311 308 306 302
293 292 291 291 291 290 289 289 289 289 289 288 288 288 288 287 288 288 288 288 288 288 288 287 287 287 289 289 290 293 298 301 307 306 307 307 305 306
292 291 291 290 290 289 289 288 288 288 287 287 287 287 287 287 287 288 288 288 289 289 289 288 287 286 286 288 289 290 292 296 300 304 302 304 306 309
291 290 290 289 289 288 288 287 287 287 286 286 286 286 286 286 286 286 286 287 288 289 288 288 287 285 286 286 287 289 290 293 296 298 300 300 304 307
290 290 289 288 288 287 287 286 286 285 285 285 285 285 284 285 285 285 285 286 287 287 288 287 286 286 286 285 286 287 289 290 292 295 296 298 300 301
289 288 287 286 286 285 284 284 284 284 284 284 284 284 284 284 284 284 285 285 286 286 288 287 287 286 286 285 285 286 288 289 291 293 295 296 298 299
287 286 285 283 282 282 281 282 282 282 283 283 283 283 284 284 284 284 284 284 285 285 287 287 288 288 288 288 286 286 286 288 289 292 294 295 295 296
285 284 283 282 282 281 281 280 280 281 282 282 283 283 284 284 284 284 284 285 285 285 286 287 287 288 288 288 288 288 288 287 288 291 292 293 293 294
283 283 283 282 282 282 281 280 282 282 282 281 282 283 283 284 284 284 284 284 284 285 285 286 286 287 287 287 286 287 288 289 289 289 291 292 292 293
283 282 282 282 281 280 280 280 281 282 282 281 282 281 282 282 282 283 283 284 284 284 284 285 285 285 286 286 286 286 286 288 289 290 290 291 292 292
283 282 281 281 280 278 278 279 280 281 281 280 280 280 280 281 282 282 283 284 284 284 285 285 285 285 286 286 287 286 284 285 288 289 290 291 292 292
283 282 281 280 278 278 278 279 279 280 279 280 280 281 281 282 282 282 283 284 284 284 285 285 285 286 286 287 286 287 286 284 285 288 289 289 290 291
282 282 281 279 277 278 277 277 278 277 278 279 280 281 281 281 282 283 283 283 284 284 284 284 285 285 286 287 287 287 287 287 285 285 286 289 289 289
280 281 279 277 277 278 277 276 276 277 278 279 279 280 280 280 281 281 282 282 283 284 284 284 284 285 286 287 287 287 287 287 287 287 287 285 287 289
280 279 280 278 277 277 277 276 277 277 277 278 279 279 279 280 281 282 283 284 284 284 284 285 285 285 285 286 287 287 287 287 287 287 286 287 287 285
280 279 279 279 277 277 277 277 277 275 276 277 277 278 279 280 281 282 283 284 285 286 285 285 285 285 285 286 286 287 287 288 287 286 286 286 287 287
280 279 279 279 278 278 278 277 277 276 276 276 277 277 278 279 280 281 281 283 284 285 285 285 285 285 286 286 287 287 287 288 287 287 286 286 286 286
280 280 280 279 278 278 278 277 277 276 275 275 276 277 277 278 278 279 280 281 283 283 284 284 285 287 286 286 286 287 287 287 286 286 286 286 287 287
280 281 280 279 278 278 277 277 276 276 276 275 275 276 276 276 278 278 279 280 281 282 282 283 283 284 287 288 285 285 286 285 285 286 286 286 287 287
280 280 280 279 279 278 277 277 276 277 276 276 275 275 275 275 277 278 278 278 279 280 281 282 283 283 283 284 284 285 284 284 285 285 285 285 285 286
281 281 280 279 279 278 277 277 276 276 276 276 275 275 275 275 276 276 277 277 277 279 280 281 281 281 282 282 283 284 284 283 284 284 284 285 285 285
282 281 281 280 279 278 277 277 277 276 275 275 275 275 274 274 275 275 276 276 277 277 278 279 280 280 282 283 285 283 283 283 283 283 283 283 284 286
282 281 281 280 279 278 278 277 277 277 277 276 275 275 275 274 274 275 275 275 276 276 277 279 280 281 282 282 282 283 283 283 283 282 282 282 282 282

GFSNE_850_thetae_045.txt.gz
Theta_e
296 295 295 294 294 293 292 292 291 291 291 290 290 290 289 289 289 289 289 289 289 288 288 288 288 288 288 290 290 289 290 295 300 305 307 309 311 311
295 295 294 293 293 292 292 291 291 290 290 289 289 289 289 289 288 288 288 289 288 288 289 289 289 289 288 287 288 289 289 290 295 300 305 307 307 309
294 294 293 293 292 291 291 290 289 289 289 288 288 288 288 288 287 287 287 287 287 287 288 289 289 289 288 287 286 287 288 289 291 296 303 305 307 308
293 292 292 291 291 290 289 289 289 288 288 287 287 287 287 287 286 286 286 286 287 287 287 288 289 288 288 287 285 286 287 288 290 293 297 303 303 306
292 291 291 290 289 288 288 287 287 286 286 286 286 286 286 285 285 285 286 286 286 286 286 287 287 288 287 287 285 285 286 287 289 291 294 296 300 302
291 290 289 288 287 286 284 284 284 285 285 285 285 285 284 284 285 285 285 285 286 286 287 287 288 288 287 286 286 285 285 286 288 290 292 295 296 298
288 288 287 286 284 283 283 283 283 283 283 283 283 283 284 284 285 285 285 285 286 286 285 286 286 288 288 289 288 288 286 285 287 289 290 293 295 296
287 286 286 285 284 283 283 282 281 281 282 283 283 283 284 284 284 284 285 284 285 285 286 286 286 287 288 289 289 289 288 288 287 287 289 292 294 294
286 286 285 284 284 284 283 281 282 281 282 282 282 283 283 283 283 283 284 284 285 285 285 285 285 286 287 288 288 287 287 288 288 288 288 291 292 293
286 285 284 284 283 282 281 280 281 282 282 282 282 282 281 281 281 282 283 283 283 284 284 285 285 285 285 286 286 286 287 286 286 289 289 289 292 292
285 284 284 283 282 281 278 279 280 281 281 281 280 280 281 281 281 282 282 284 284 284 285 285 285 285 286 286 286 286 286 286 285 288 289 290 290 291
285 284 284 283 282 278 278 278 279 280 279 279 280 281 281 282 282 283 283 284 285 285 285 285 286 286 287 287 286 286 287 286 284 285 288 289 290 290
283 283 283 282 280 278 278 278 278 276 278 279 280 281 281 282 282 282 283 283 283 284 285 285 285 286 286 287 288 287 287 287 287 284 285 287 289 289
282 283 282 280 280 278 278 278 277 278 279 279 280 281 281 281 281 282 283 283 284 283 284 285 285 285 286 287 288 288 287 288 288 288 286 285 287 289
282 281 281 281 280 280 279 278 278 279 278 279 280 280 280 280 281 282 283 284 285 285 285 285 285 285 285 286 287 288 288 288 288 288 287 287 287 286
282 282 281 281 281 280 280 280 279 279 278 279 279 279 279 280 281 281 282 283 285 286 286 286 285 285 285 286 286 287 287 288 288 287 286 287 287 288
282 281 281 282 282 281 281 280 280 279 279 278 279 279 279 279 280 280 281 282 284 284 285 285 286 286 286 286 286 287 288 288 288 287 286 286 287 287
282 281 282 282 281 281 281 280 280 279 278 277 278 279 278 278 279 280 280 281 282 283 284 284 285 285 286 286 286 286 288 288 287 287 287 286 287 286
281 281 282 282 281 281 281 280 280 279 278 278 278 278 278 278 278 279 280 280 280 281 283 283 284 284 285 288 286 285 287 287 286 286 286 287 287 288
281 282 282 282 281 281 281 280 279 278 278 277 277 277 277 277 278 278 279 279 279 280 281 282 283 282 282 283 284 285 285 285 285 286 286 286 286 286
283 282 282 282 282 281 281 280 278 278 278 277 277 277 277 277 278 278 278 278 278 279 280 281 281 281 281 282 284 285 285 284 284 285 285 285 286 286
283 282 282 282 282 281 280 280 278 278 278 278 277 276 276 276 277 277 277 277 278 278 279 280 280 281 282 283 284 285 284 283 283 283 283 284 285 286
283 283 282 282 282 281 280 280 279 278 278 277 277 276 276 276 277 277 277 277 277 277 277 279 280 281 282 283 283 284 284 283 283 283 283 283 283 284

GFSNE_850_thetae_048.txt.gz
Theta_e
297 296 296 294 294 294 293 293 292 292 291 291 291 290 290 290 289 289 288 288 288 288 288 288 288 288 289 289 288 287 287 290 290 290 294 297 302 307
295 295 294 293 294 293 293 292 291 291 290 290 289 289 289 288 288 288 288 288 287 287 287 287 286 287 288 289 289 288 287 287 289 289 290 296 301 305
293 294 293 293 292 292 291 290 290 290 289 289 288 288 287 287 287 286 286 286 286 286 286 286 287 287 287 289 289 288 288 287 286 288 290 293 298 302
294 293 292 291 291 290 290 289 288 288 287 286 286 286 286 286 285 285 285 285 285 285 285 286 286 286 286 287 287 287 287 287 285 287 289 292 295 300
292 291 291 290 289 288 288 288 287 285 284 285 285 285 284 284 284 284 284 285 285 286 286 286 286 287 287 288 288 288 286 286 285 286 288 290 293 297
291 290 289 288 287 287 286 285 283 283 283 283 283 283 283 283 283 284 285 285 284 284 285 285 285 286 286 287 288 287 286 285 285 285 287 289 292 295
289 288 288 287 286 285 284 284 283 283 282 281 281 282 282 283 283 284 284 283 284 284 284 285 285 285 286 287 288 288 288 287 286 285 286 289 291 294
287 287 287 286 285 284 284 284 283 282 281 281 282 282 283 283 283 283 282 282 282 283 283 284 285 285 285 286 288 289 289 288 288 287 286 288 291 294
287 287 286 285 285 284 284 283 281 280 281 281 282 282 282 282 281 281 280 281 281 282 282 283 284 284 284 285 286 288 287 287 287 288 287 288 290 293
287 286 285 285 285 283 282 281 279 280 280 281 281 281 280 280 280 281 282 281 282 283 284 284 284 284 284 284 285 285 286 286 287 286 286 288 289 292
286 285 285 284 283 283 282 279 279 280 280 280 280 280 280 281 281 282 282 283 283 284 284 285 284 285 286 285 285 285 285 286 285 286 285 288 289 290
284 284 284 284 283 283 281 279 279 279 277 278 279 280 280 281 281 282 282 282 283 283 283 284 285 285 286 286 286 287 286 286 286 286 285 287 289 290
284 283 283 283 283 281 280 279 279 278 279 279 279 280 280 281 281 281 282 282 283 283 284 283 284 285 285 286 286 287 287 287 287 287 285 285 287 289
284 283 282 282 281 281 281 280 279 279 279 278 279 279 279 280 280 281 282 283 283 284 285 285 284 285 285 285 286 287 288 288 288 288 287 285 284 287
283 282 282 282 281 281 281 280 280 279 279 278 278 279 279 279 280 281 281 282 283 285 286 285 285 285 285 285 286 286 287 288 288 288 288 287 287 284
283 283 283 282 282 282 281 281 280 280 279 279 278 278 279 279 279 280 280 281 283 284 285 286 285 285 285 285 285 286 287 288 288 288 287 287 287 287
284 283 282 282 282 282 281 281 281 280 280 279 278 278 279 278 278 279 280 280 282 283 283 284 284 285 286 285 286 286 287 287 288 288 287 286 286 287
283 282 282 282 282 282 281 281 281 280 280 279 278 278 278 278 278 279 279 280 280 281 282 283 283 284 285 286 286 286 286 287 288 287 286 286 287 287
282 282 282 282 282 282 281 281 281 280 280 279 278 278 278 278 278 278 278 278 278 279 281 282 283 283 283 284 285 285 286 286 286 286 287 286 287 288
282 282 281 282 282 282 281 281 281 280 279 278 278 278 277 277 277 278 277 278 278 279 279 280 281 281 281 282 283 285 285 285 285 286 287 286 286 286
283 283 283 283 283 282 282 281 281 280 279 278 278 278 277 277 277 277 277 277 278 278 278 279 279 281 281 282 283 285 285 284 284 285 285 285 286 286
283 283 283 283 282 283 282 282 281 280 279 279 278 278 277 277 277 277 277 277 277 277 277 278 280 281 282 284 284 284 285 283 283 284 284 284 285 286
285 284 284 283 283 282 282 282 281 280 279 279 278 278 278 277 277 277 277 277 277 277 276 278 279 280 282 283 283 283 284 283 283 283 283 283 283 284

GFSNE_850_thetae_051.txt.gz
Theta_e
296 296 295 295 295 294 294 293 293 292 291 290 290 290 289 289 288 288 288 288 288 287 287 287 286 287 288 288 288 289 290 290 290 289 288 290 293 294
296 295 292 294 294 293 292 292 291 291 290 289 289 288 288 288 287 287 287 287 286 285 285 285 285 286 286 287 287 288 288 289 289 289 287 287 292 293
293 291 293 293 292 292 291 290 290 289 289 288 288 287 286 285 285 285 285 284 284 284 285 285 285 285 286 286 286 286 288 289 288 287 287 286 288 292
292 293 292 292 291 290 290 289 288 288 287 285 284 283 283 284 284 284 283 284 284 285 285 285 285 286 286 286 286 287 287 287 287 286 286 285 286 289
292 291 290 290 289 288 288 287 287 286 284 283 283 282 282 282 282 283 283 283 284 284 284 284 284 284 285 285 285 286 287 288 288 286 285 285 286 288
291 290 289 288 288 287 287 286 285 284 283 283 282 281 281 282 282 282 282 283 283 283 283 284 284 284 285 285 285 286 287 287 287 287 285 285 286 288
290 289 288 288 287 287 285 285 284 284 283 282 281 281 281 282 283 283 282 281 282 282 282 282 283 283 284 284 285 285 286 288 288 287 286 285 286 288
288 287 287 287 286 285 285 284 284 283 281 279 280 281 281 282 281 281 280 280 281 281 281 282 283 283 283 283 284 285 286 288 288 288 288 288 287 289
287 286 286 286 285 285 284 284 282 281 279 280 280 281 281 281 280 280 281 281 282 282 282 283 284 284 284 284 284 284 285 285 287 287 287 287 287 289
287 286 286 286 284 284 284 283 282 280 280 279 280 280 280 280 280 281 281 282 282 282 283 283 284 284 285 285 285 285 285 285 286 286 286 286 286 289
287 285 285 284 284 284 283 283 281 280 280 279 278 279 280 280 281 281 282 282 282 282 282 283 283 283 285 285 286 286 286 285 285 286 286 285 285 289
286 285 284 284 283 283 283 281 281 279 279 280 279 279 280 280 280 280 281 281 282 283 283 283 284 283 284 284 285 285 287 286 286 286 286 286 285 288
285 284 283 283 283 283 282 281 280 280 280 279 279 279 279 279 279 280 281 281 282 282 283 284 284 284 284 285 285 285 286 287 287 287 287 286 284 288
286 284 284 283 282 282 281 281 281 280 280 279 279 278 278 279 279 279 280 281 281 282 284 286 284 285 284 284 285 285 286 288 287 288 287 287 284 285
285 285 284 283 282 281 281 281 281 280 280 279 279 279 278 279 279 278 279 280 281 283 284 284 285 285 285 285 285 285 286 287 288 288 288 287 286 284
285 285 284 283 283 282 282 281 281 281 280 280 279 279 278 278 278 278 280 280 280 282 283 283 284 285 285 285 285 285 286 286 287 288 287 287 287 287
284 284 283 283 283 282 282 282 281 281 280 280 279 279 278 278 278 278 279 279 279 280 281 282 283 284 285 286 285 285 286 286 287 287 287 286 286 287
284 284 283 283 282 282 282 282 281 281 281 280 280 279 278 278 278 278 278 278 278 279 280 281 282 283 284 284 285 285 286 286 288 287 286 287 287 287
283 282 282 282 282 282 282 282 281 281 281 280 280 279 278 278 277 278 277 277 278 279 279 280 280 281 282 283 285 285 285 286 286 286 286 286 286 288
284 283 282 282 282 281 282 282 281 281 281 281 280 279 278 278 277 277 277 277 277 277 277 279 280 280 281 281 282 284 284 285 285 286 286 286 286 286
285 284 283 282 282 282 282 282 282 281 281 281 280 279 279 278 278 277 277 277 277 277 277 277 279 281 282 283 283 284 285 284 284 284 285 285 286 286
285 285 284 283 283 283 283 282 282 282 281 281 280 279 279 278 278 277 277 277 277 277 277 277 279 281 282 283 283 284 284 283 283 283 283 284 285 286
286 285 285 284 284 283 283 283 282 282 281 281 280 279 278 278 277 277 277 277 277 277 276 276 279 280 281 281 282 283 283 283 283 283 283 283 283 283

GFSNE_850_thetae_057.txt.gz
Theta_e
293 293 293 292 292 292 292 294 293 292 291 291 290 289 288 288 287 286 285 284 284 284 284 284 284 285 286 286 287 287 288 288 289 290 290 290 291 293
293 292 291 291 291 292 292 292 292 291 290 289 288 287 286 284 283 283 283 283 283 283 283 283 283 285 285 286 286 287 287 288 288 288 289 289 291 292
293 293 291 291 292 292 291 291 290 289 288 287 286 285 284 283 282 282 282 282 282 282 282 283 283 283 284 284 284 285 285 286 287 287 288 289 290 291
293 293 291 291 291 290 290 289 288 287 287 286 285 284 283 282 281 282 282 282 282 282 282 282 282 283 283 283 283 284 284 284 284 284 284 287 288 289
292 291 291 291 290 290 289 288 287 287 286 284 284 283 282 281 282 281 281 282 282 282 281 281 281 282 282 282 283 283 284 284 284 284 285 285 287 287
290 290 290 290 289 289 288 287 286 285 284 284 283 282 281 281 281 280 281 280 280 280 281 281 281 282 282 282 282 283 283 284 284 284 284 285 286 287
289 289 289 289 288 287 287 286 285 285 284 284 282 281 280 281 280 279 279 279 279 281 281 281 282 283 283 284 283 283 283 283 284 284 284 285 285 287
289 289 288 288 287 287 286 286 285 284 284 283 282 281 280 280 279 279 279 280 280 281 281 281 282 282 282 283 283 284 284 283 283 283 284 286 288 288
288 288 288 288 288 287 286 285 285 284 283 282 281 280 279 279 279 279 279 280 280 280 280 281 282 282 283 283 283 284 285 285 284 284 284 286 287 287
288 287 287 288 288 286 285 284 284 284 283 282 281 280 280 279 279 279 279 279 280 280 280 281 282 283 283 284 284 285 285 285 285 285 285 285 286 287
288 287 286 287 287 286 284 284 284 283 282 281 280 280 279 279 279 279 278 279 279 279 280 281 282 283 284 284 284 285 284 284 285 285 286 285 285 286
288 287 286 286 286 285 283 283 283 282 281 281 281 280 279 279 278 278 278 278 278 279 280 280 282 283 283 283 284 284 284 285 285 286 286 286 285 285
287 287 286 286 286 285 284 283 283 282 281 281 280 280 280 279 279 278 279 278 278 278 280 280 282 283 284 283 284 285 284 285 286 287 286 285 285 286
287 287 286 286 285 285 284 283 282 282 281 281 281 280 280 279 279 279 279 278 279 279 280 281 282 283 283 284 284 285 285 285 286 287 287 286 286 286
287 287 286 286 285 286 284 284 282 282 281 281 281 280 280 279 279 278 278 278 278 279 279 280 281 282 283 284 284 284 285 285 286 287 287 287 286 286
287 287 287 286 286 285 284 284 283 283 282 281 281 280 280 280 280 278 278 278 278 278 279 280 281 282 283 283 284 284 285 286 286 287 287 287 287 286
288 288 287 287 286 285 285 284 284 283 282 281 281 280 280 280 280 279 278 278 278 277 279 280 280 281 282 283 284 284 285 286 286 287 286 286 285 285
287 287 286 287 286 286 285 283 283 283 282 281 281 281 280 280 280 279 278 278 277 277 277 277 279 281 281 283 284 284 285 285 286 286 286 286 286 286
287 287 287 287 286 285 285 283 282 282 281 281 281 281 280 280 280 279 278 278 277 277 277 277 277 279 280 281 283 283 284 284 285 285 286 286 286 287
287 286 286 286 286 286 285 284 282 282 281 282 281 281 280 280 279 278 278 278 277 277 277 277 279 280 280 281 281 283 283 284 284 285 285 285 285 286
287 286 286 286 286 286 285 284 283 282 281 281 281 281 280 280 280 278 278 278 277 277 277 276 278 280 281 282 283 283 283 283 283 284 284 285 285 285
286 286 286 286 286 286 286 285 283 282 282 282 281 281 281 281 280 279 278 278 278 277 277 276 277 280 281 281 282 283 283 283 282 282 283 284 285 285
286 286 286 286 286 286 286 285 284 283 282 282 282 282 282 281 280 279 278 278 278 278 277 277 276 278 280 280 281 282 283 283 283 283 282 282 283 284

GFSNE_850_thetae_060.txt.gz
Theta_e
292 292 292 291 291 290 291 292 292 291 292 291 290 289 288 287 286 285 284 283 283 283 283 283 283 283 285 286 286 287 287 288 289 289 289 290 291 291
292 293 293 292 291 290 291 291 292 291 290 290 289 287 286 285 284 283 282 282 283 283 283 282 282 283 285 285 285 286 286 287 288 288 289 290 290 290
293 293 292 291 290 290 290 290 290 290 289 288 287 286 285 284 283 282 282 282 282 282 282 282 282 283 283 283 283 283 284 285 286 286 287 288 288 289
292 292 290 289 290 290 290 290 289 288 287 287 286 285 284 283 282 281 282 281 281 282 282 282 282 282 282 282 282 282 283 283 284 285 286 286 286 287
292 291 290 289 289 290 290 289 289 287 286 286 285 284 283 282 281 281 281 281 280 280 280 280 281 281 281 282 282 282 282 283 283 283 284 284 284 284
291 290 289 289 289 289 289 288 288 286 286 285 284 283 283 282 281 280 281 280 280 280 281 281 281 281 282 283 283 283 283 282 282 283 283 284 284 284
291 290 289 288 288 288 288 287 286 286 285 285 284 283 282 281 280 280 280 280 280 280 281 281 281 281 282 282 282 283 283 283 283 283 283 283 284 284
290 290 288 288 288 288 287 287 286 286 285 284 283 283 282 280 280 280 279 279 279 280 279 281 281 281 282 282 282 283 283 284 284 284 283 283 283 283
290 289 288 288 287 287 287 287 286 285 285 284 283 282 281 280 280 279 279 279 279 279 279 280 281 282 283 283 283 283 283 285 285 285 285 284 284 284
290 289 288 287 287 286 287 287 286 285 284 283 283 282 280 280 279 279 279 278 279 279 279 280 282 282 283 284 284 284 283 285 285 284 284 285 285 285
290 289 288 287 287 286 287 286 285 284 284 283 282 281 280 280 279 278 279 278 279 279 279 280 281 282 283 284 284 284 284 284 284 284 285 285 285 286
290 289 288 287 287 286 286 285 284 284 283 282 281 280 280 280 279 279 279 278 278 278 278 278 280 281 282 283 284 284 284 284 284 284 286 286 286 286
290 289 289 287 287 286 286 285 285 284 283 282 281 281 280 280 280 279 279 278 278 278 279 279 279 280 281 282 283 284 284 284 285 286 287 286 286 285
290 289 289 287 287 286 286 285 285 284 283 281 281 281 281 280 280 280 279 279 278 278 278 278 279 280 280 281 282 283 284 285 285 286 286 287 286 286
290 289 289 288 287 286 286 285 285 284 283 282 282 281 281 280 280 280 279 279 279 278 278 278 279 279 280 281 282 283 284 285 286 286 287 287 287 286
289 289 288 288 287 287 286 286 286 285 284 283 282 282 281 280 280 280 279 279 279 279 278 279 279 280 280 281 282 283 284 284 285 286 287 286 286 287
289 289 288 288 288 287 287 286 286 285 284 283 282 282 281 281 280 280 279 279 278 278 279 278 278 279 280 281 282 283 283 284 286 286 286 286 286 286
288 287 288 287 287 287 286 287 286 285 284 283 282 282 281 281 280 280 279 278 278 278 278 277 277 278 280 281 282 283 283 284 285 285 286 286 286 286
287 288 287 287 287 287 286 286 286 285 283 282 282 281 281 281 280 280 279 278 278 278 278 277 277 279 280 281 281 283 283 284 284 285 285 285 285 285
287 287 287 287 286 286 286 286 285 285 283 282 281 281 281 280 280 280 279 278 278 278 278 277 277 279 280 280 281 283 283 283 283 284 284 285 285 285
285 285 286 286 286 286 286 286 285 285 284 282 281 281 281 280 280 280 279 278 278 278 278 278 277 279 280 281 282 282 282 282 283 283 283 284 285 285
283 284 284 285 286 285 286 286 285 285 284 282 282 281 281 281 280 280 279 278 278 278 278 278 277 278 280 280 281 282 282 282 282 282 282 283 283 284
280 283 284 284 284 285 285 285 285 285 284 283 282 282 281 281 281 280 279 278 278 278 278 278 277 277 278 279 280 281 282 282 282 282 282 282 283 283

GFSNE_850_thetae_063.txt.gz
Theta_e
293 292 292 292 292 292 291 291 293 293 292 292 291 290 289 288 287 286 285 284 283 283 283 283 283 283 283 285 286 286 287 288 288 289 289 290 290 291
292 292 292 293 292 290 290 291 292 292 291 291 291 289 287 286 285 284 283 283 283 283 283 283 283 283 283 284 285 285 286 286 287 287 288 289 289 290
292 292 292 292 290 289 290 291 291 291 291 290 289 287 287 285 284 283 282 282 282 283 282 282 282 282 282 282 283 283 283 284 285 286 287 287 288 289
293 293 292 291 290 289 290 290 290 290 289 289 288 286 285 284 283 283 282 282 282 282 282 281 280 280 280 281 281 281 282 283 283 284 285 286 287 287
292 292 291 290 289 290 290 290 290 289 288 287 287 286 284 284 283 282 281 282 282 282 282 281 280 281 281 281 282 282 283 283 283 283 283 284 284 284
292 292 291 290 289 289 289 289 289 288 287 286 286 285 284 284 282 281 282 281 281 281 281 281 281 281 281 281 282 282 283 283 283 283 283 282 283 283
292 291 291 290 289 288 288 288 288 287 286 286 286 285 284 284 283 281 281 281 281 282 282 282 281 282 282 282 282 282 282 282 283 283 284 283 283 283
291 291 290 290 289 288 288 288 287 287 286 286 286 285 284 283 282 281 281 281 281 282 281 281 281 282 282 283 283 282 282 282 283 283 284 285 284 284
291 291 291 290 289 288 288 287 287 287 287 286 285 285 284 283 281 280 281 281 281 281 280 281 281 282 283 283 283 283 284 283 283 284 285 285 285 285
291 291 291 290 289 288 288 287 286 286 287 286 285 284 283 282 281 280 280 280 280 281 280 280 281 282 282 283 284 284 284 284 284 284 284 284 285 285
290 291 291 290 290 289 288 287 286 286 286 285 284 283 283 282 281 280 280 280 281 281 281 280 281 281 282 283 284 283 284 284 284 284 284 284 284 285
289 289 290 290 290 289 288 287 287 286 285 284 283 283 282 281 280 280 280 280 280 280 280 280 280 281 281 283 284 284 284 284 284 284 284 285 286 286
290 290 289 289 290 290 288 287 287 286 285 284 284 282 282 281 281 280 280 279 280 280 280 279 279 280 280 281 282 283 284 284 285 285 286 286 287 286
287 288 289 290 289 290 288 287 287 286 285 285 284 283 282 281 281 281 280 280 279 279 279 278 278 279 279 280 281 283 283 284 285 285 285 286 287 287
284 285 286 288 289 289 289 287 286 287 286 285 284 283 283 282 281 281 280 280 280 279 279 278 278 278 279 279 280 282 282 284 284 285 285 287 286 287
283 284 286 286 287 287 288 288 287 286 286 286 285 284 283 282 282 281 280 280 279 279 279 278 278 278 279 280 280 281 283 283 283 285 286 286 286 286
284 284 285 287 287 287 287 288 287 287 286 286 285 284 283 282 282 281 280 280 279 279 279 279 278 277 277 278 280 282 283 283 284 284 285 286 286 286
285 286 286 287 287 286 287 287 287 287 286 286 285 284 283 283 282 281 280 280 279 279 279 279 278 279 280 281 281 281 283 283 283 284 284 285 285 285
286 286 286 287 286 287 287 287 286 286 286 285 285 284 283 283 282 281 280 279 279 278 278 278 278 278 280 281 281 282 282 283 283 283 284 284 285 285
283 284 285 286 286 286 286 286 286 285 285 284 284 284 282 282 281 281 280 279 279 278 278 278 278 277 279 280 280 282 282 283 283 283 283 284 285 285
280 280 282 283 284 284 285 285 285 285 285 284 284 283 282 281 281 281 280 280 279 278 278 279 278 277 280 280 281 282 282 282 282 282 282 283 284 284
277 279 279 280 282 284 284 284 284 284 284 284 284 283 282 281 281 280 280 280 279 278 278 278 278 277 279 280 281 281 281 282 282 282 282 282 282 283
275 276 277 279 279 281 282 284 283 283 283 284 284 283 282 281 281 281 280 280 279 278 278 278 278 277 278 279 279 280 281 282 282 282 281 281 281 282

GFSNE_850_thetae_066.txt.gz
Theta_e
299 298 297 296 296 296 295 295 295 295 295 295 294 293 293 292 291 290 288 287 285 284 284 283 283 283 283 283 285 286 287 287 288 288 289 290 291 291
298 297 297 296 296 295 295 294 294 294 294 294 293 293 292 291 290 288 287 286 284 284 283 283 283 283 283 283 283 284 285 286 286 287 287 288 289 290
297 296 296 296 295 295 294 294 294 294 293 293 293 292 291 290 289 288 287 286 285 284 283 283 283 283 282 282 281 281 281 283 284 285 285 286 287 288
297 296 296 295 295 294 294 294 293 293 293 292 292 291 291 289 288 287 286 285 284 284 284 283 283 283 282 281 281 281 282 283 283 284 284 285 285 287
296 296 295 295 294 294 293 293 293 292 292 291 291 290 290 289 288 287 286 285 285 284 283 283 282 283 281 281 282 282 282 282 283 283 283 283 284 284
296 295 295 294 293 293 293 292 292 291 291 291 290 290 289 289 288 286 286 285 284 284 284 284 283 283 283 283 283 282 282 282 283 282 283 283 283 283
296 295 294 294 292 291 291 291 291 291 290 290 290 289 289 288 288 287 286 284 284 284 285 285 284 284 284 284 284 284 284 283 282 282 283 283 283 284
295 294 294 293 293 291 290 290 289 289 290 290 289 288 288 288 287 286 285 284 284 285 285 284 284 284 284 285 285 284 283 284 284 283 283 283 285 285
294 294 294 293 292 292 291 290 289 288 288 288 288 288 288 287 287 286 284 284 284 284 283 284 284 284 284 285 284 284 284 284 284 284 283 283 284 285
293 293 293 293 293 292 292 291 290 290 289 288 287 287 287 286 286 284 283 283 283 284 284 284 284 284 284 284 284 284 284 284 284 284 284 284 284 284
292 292 292 292 291 291 291 290 290 290 288 287 287 286 286 285 284 283 283 283 284 284 284 283 283 283 284 284 285 285 284 285 284 285 285 284 284 284
290 291 290 291 291 290 290 290 290 289 289 287 286 285 285 284 283 283 282 283 283 283 283 282 283 282 283 283 285 284 285 285 285 285 285 286 286 286
286 286 287 287 288 288 290 289 289 289 288 287 287 286 285 285 284 283 282 283 283 283 283 282 282 282 282 283 283 283 284 285 285 285 286 286 286 286
284 285 285 286 285 285 286 288 288 289 288 287 286 286 285 285 284 283 283 283 283 282 282 281 281 281 282 282 282 282 283 284 284 285 285 286 286 287
281 282 283 283 284 284 285 286 288 287 287 287 287 286 285 285 284 283 283 283 282 282 281 281 280 281 281 281 282 282 283 284 285 285 285 286 287 287
281 282 284 285 285 285 286 287 287 287 287 287 286 286 286 285 284 283 283 283 282 282 282 281 280 280 281 281 281 282 282 284 285 285 284 286 286 286
281 283 285 285 286 287 287 287 287 287 287 287 287 286 286 285 284 283 283 282 282 282 282 282 281 281 281 281 281 282 283 284 284 284 285 286 286 286
281 282 284 286 287 287 287 287 287 287 287 287 286 286 285 285 284 283 282 282 282 282 282 282 282 282 282 283 283 283 283 283 283 284 284 285 286 286
279 279 280 282 284 286 287 287 287 286 286 286 285 286 285 284 284 283 283 282 282 282 282 282 281 281 281 283 284 282 282 282 282 283 284 285 284 285
277 277 277 279 280 283 285 286 286 286 285 285 285 285 284 284 284 283 282 282 282 282 282 281 281 281 281 282 281 282 282 282 282 282 283 283 284 285
275 275 275 275 278 280 281 284 285 285 285 285 285 285 284 284 283 283 282 282 281 281 281 281 281 280 278 279 281 283 283 282 282 282 282 283 284 285
273 273 273 273 274 278 279 280 283 284 284 284 284 284 284 283 283 282 282 282 280 281 281 281 280 279 279 281 282 282 283 282 282 282 282 282 282 283
271 271 271 271 272 275 277 278 279 281 282 283 283 283 284 283 283 282 282 281 281 281 280 280 280 279 279 280 280 281 281 281 282 283 283 282 282 282

GFSNE_850_thetae_069.txt.gz
Theta_e
305 305 301 300 299 299 299 298 297 297 297 297 297 296 296 295 294 293 293 292 290 289 287 285 284 284 283 283 283 284 285 286 287 288 289 289 290 290
304 301 301 300 299 298 298 297 297 296 296 296 296 295 295 294 294 293 292 290 289 288 287 285 284 284 283 283 283 283 284 284 285 286 287 287 288 289
303 300 299 299 298 298 297 297 296 296 296 295 295 295 294 294 294 293 291 290 289 288 286 285 285 284 283 283 283 283 282 281 283 284 285 286 286 287
300 299 299 299 298 297 297 296 296 295 295 295 294 294 293 293 292 292 291 290 289 288 287 285 285 284 284 284 283 282 282 282 283 283 284 284 285 286
300 299 299 298 297 297 296 295 295 295 294 294 294 293 293 292 292 291 291 290 289 287 286 286 285 285 285 284 284 284 284 283 282 282 282 283 283 284
299 299 298 297 297 296 296 295 294 294 293 293 293 293 292 292 291 291 290 289 288 288 286 286 286 286 285 285 285 285 285 284 284 283 282 283 282 283
299 298 297 297 296 295 295 294 293 292 292 292 292 292 292 291 291 290 290 289 288 287 286 286 286 286 286 286 285 286 285 285 284 284 284 283 282 282
297 297 296 296 296 295 295 294 294 293 291 291 291 291 291 290 290 290 289 289 288 287 286 286 286 285 285 286 285 285 285 284 284 284 284 284 284 283
295 295 295 295 295 294 294 294 294 293 291 290 290 289 289 289 290 289 289 288 287 286 286 285 285 285 286 285 285 285 285 284 284 284 284 284 284 284
293 293 294 293 293 293 293 293 293 293 293 292 291 290 289 288 288 288 288 287 285 285 285 285 285 285 285 285 285 285 284 285 284 284 285 285 285 285
292 292 292 292 292 292 291 291 291 291 291 290 290 290 289 289 287 286 286 285 285 285 285 285 285 285 284 284 285 285 286 285 285 285 285 285 285 285
286 287 287 286 286 287 287 287 288 288 289 290 290 290 289 288 287 286 286 284 284 284 285 285 285 285 284 284 285 284 284 284 285 284 285 285 286 286
283 283 283 283 283 284 285 286 286 286 286 287 289 290 289 287 286 285 284 284 283 284 284 284 284 284 283 283 283 284 284 284 284 285 285 286 286 286
281 281 281 281 281 282 283 283 283 284 285 285 287 289 289 288 286 286 285 284 284 284 283 284 283 283 282 282 283 283 283 283 283 284 285 286 286 287
280 280 280 280 283 285 286 285 286 285 285 286 287 288 289 287 287 286 285 285 284 284 284 283 282 282 282 282 282 283 283 283 283 285 286 285 286 286
279 279 280 283 285 286 287 287 288 287 287 287 287 288 288 287 287 286 285 285 284 283 283 283 283 282 282 282 282 282 282 283 283 285 285 285 286 286
278 280 282 281 283 283 286 287 288 288 288 288 287 287 287 287 287 286 285 285 284 284 284 283 284 283 282 282 282 282 283 283 284 285 284 285 285 287
278 280 280 280 280 281 282 284 287 288 287 288 287 287 287 287 287 286 285 285 284 283 283 283 284 283 283 283 284 284 284 283 283 283 284 285 285 286
279 279 279 278 278 278 279 281 283 285 287 287 288 287 286 286 286 286 285 285 284 283 283 283 283 283 283 283 284 284 283 283 283 283 283 284 284 285
278 278 277 277 276 276 277 278 281 284 285 286 286 286 286 286 286 286 285 285 284 283 283 283 283 283 283 283 283 282 282 283 282 282 283 283 284 286
276 276 276 276 275 274 275 276 278 280 282 284 285 285 285 285 285 285 285 284 284 283 283 283 283 283 282 282 280 282 284 282 283 282 282 282 283 285
274 274 274 273 273 273 273 274 275 278 280 281 283 285 285 285 285 285 284 284 283 282 282 282 282 281 281 281 282 283 283 283 282 283 282 282 282 282
272 272 272 271 271 272 272 272 273 276 277 277 279 283 284 284 285 284 284 283 283 282 282 282 282 282 281 281 281 281 282 282 283 283 284 283 282 282

GFSNE_850_thetae_072.txt.gz
Theta_e
307 310 308 306 305 302 300 299 299 298 298 297 296 296 296 296 296 296 295 295 294 293 292 290 289 288 286 285 284 283 283 286 286 287 287 288 289 289
308 308 306 306 302 300 299 299 298 298 297 297 297 296 296 295 295 295 294 294 293 292 290 290 289 287 286 285 284 283 283 283 284 285 286 286 287 288
306 305 305 302 300 300 299 298 298 297 297 296 296 296 295 295 294 294 294 294 293 292 290 289 288 287 286 285 284 284 284 283 283 283 285 285 286 287
305 304 301 300 300 299 298 298 297 297 296 296 295 295 295 294 294 293 293 293 292 291 290 289 288 286 285 285 285 285 285 284 284 283 283 284 285 285
302 300 300 299 299 299 298 298 297 296 296 295 295 295 294 294 294 293 293 292 292 291 290 288 287 286 286 286 286 286 285 285 285 284 283 282 282 283
300 300 299 299 299 298 297 297 296 296 295 295 294 294 293 293 293 293 292 292 291 290 289 289 288 286 286 286 286 285 286 285 285 285 284 284 283 283
299 299 299 299 298 297 297 296 296 295 295 294 294 293 292 291 292 291 291 291 290 290 289 288 287 286 286 286 285 285 286 285 285 284 284 284 284 284
298 297 296 297 297 296 295 295 295 295 295 294 294 293 292 292 290 290 290 290 290 289 289 287 286 286 286 286 285 286 285 285 285 285 284 284 284 284
291 290 291 293 294 294 294 294 294 294 294 294 293 293 293 292 291 290 289 289 289 289 287 287 286 285 285 285 286 285 285 285 285 284 284 284 284 284
290 292 293 293 293 293 293 293 293 292 292 291 292 292 291 291 291 290 289 288 288 288 287 286 285 285 285 285 285 285 284 285 285 285 285 284 284 285
289 288 287 286 286 285 285 285 285 285 286 287 288 290 290 290 290 290 289 288 288 287 286 285 284 285 285 285 285 284 284 284 284 284 285 285 284 285
285 285 284 283 283 283 281 281 281 281 281 283 285 285 285 286 288 290 289 289 287 286 286 285 284 285 285 284 284 284 283 283 284 284 284 284 284 285
284 283 283 282 282 281 281 283 284 285 284 284 283 283 284 284 286 288 289 288 286 286 285 284 284 284 284 283 283 282 282 283 283 283 282 284 285 285
282 281 281 281 281 281 283 285 286 286 286 286 286 286 285 286 286 289 288 286 285 285 284 283 284 284 283 283 282 282 282 282 283 283 283 284 285 286
281 280 280 280 281 281 282 283 285 287 288 288 288 286 286 286 287 288 287 286 286 285 285 284 284 284 283 282 282 281 281 282 282 282 284 284 285 285
280 280 279 280 281 280 280 282 283 284 286 288 288 288 287 286 288 288 287 286 286 285 285 284 284 283 282 282 282 281 282 282 283 283 284 285 284 285
279 279 279 280 279 279 279 279 281 283 285 286 287 287 287 287 288 288 287 286 286 285 285 284 284 283 283 283 282 282 283 283 283 283 283 284 284 285
278 279 279 279 278 278 277 277 278 280 282 284 286 287 287 287 288 287 287 286 286 285 285 284 283 284 284 283 283 283 284 283 283 283 283 283 284 284
278 278 278 277 277 276 276 276 275 277 279 281 283 285 287 287 288 287 286 286 286 285 285 284 283 283 283 283 283 283 284 283 282 282 283 283 283 284
277 277 276 276 275 275 275 274 274 275 277 279 281 283 285 286 286 286 286 286 286 285 285 284 283 283 283 283 283 283 282 281 283 282 282 282 283 284
275 275 275 274 274 273 273 273 273 273 274 277 279 280 282 285 285 285 285 286 286 285 284 283 282 283 283 283 283 282 282 283 282 282 282 282 282 283
274 274 273 272 272 272 272 272 272 272 272 274 276 277 279 282 284 285 285 286 285 285 284 283 283 283 282 282 281 281 282 283 282 282 283 283 282 282
272 271 271 271 271 271 271 270 270 270 270 271 273 275 277 279 282 284 285 285 285 284 283 282 282 282 282 281 281 281 281 282 282 282 283 283 283 282

GFSNE_850_thetae_075.txt.gz
Theta_e
312 311 309 306 308 307 306 305 301 299 299 299 298 296 295 295 296 296 296 295 295 294 294 294 293 292 291 289 288 287 285 284 284 286 287 287 288 288
311 309 307 307 307 306 305 301 300 299 299 298 298 297 296 295 295 295 295 295 294 294 294 293 293 292 290 289 287 285 285 285 284 284 285 286 287 287
310 308 307 306 305 304 301 300 300 299 298 298 297 297 295 295 295 295 294 294 293 293 293 293 292 291 290 288 286 286 285 285 285 284 285 285 286 286
308 307 306 304 302 300 300 299 299 298 298 297 297 296 296 295 295 295 294 294 294 293 293 292 291 290 289 287 286 286 286 286 285 285 285 284 284 284
306 305 302 300 300 299 299 299 298 298 297 297 296 296 296 295 294 294 293 293 291 293 292 292 291 289 288 287 287 286 286 286 285 286 285 285 285 284
303 301 300 299 299 299 299 298 297 297 297 296 296 295 295 295 294 294 293 292 292 292 291 291 291 290 288 288 286 286 286 286 285 285 285 285 285 284
300 299 299 299 298 298 297 296 295 295 295 295 295 295 295 294 294 294 292 292 291 290 290 289 290 289 288 287 286 286 286 285 286 285 285 285 284 284
299 299 299 299 298 297 296 295 294 294 294 294 294 293 293 293 293 293 293 292 291 290 289 289 289 288 287 286 286 285 285 285 285 285 284 284 284 284
293 292 291 290 291 291 292 292 293 293 293 292 292 291 290 290 291 291 291 291 291 290 289 288 288 288 287 287 285 285 285 285 285 284 284 285 284 284
292 291 290 290 290 289 288 286 285 285 284 284 283 283 283 286 288 289 289 290 290 290 289 289 288 287 287 286 284 285 285 284 284 284 284 284 284 285
291 289 287 286 285 284 284 284 284 284 283 283 284 283 282 282 282 285 285 287 289 289 289 288 288 287 286 284 285 285 285 284 284 283 284 284 284 284
287 285 284 284 283 282 282 282 282 282 283 285 285 285 285 285 285 284 284 284 287 288 288 288 287 286 284 284 284 284 284 284 283 283 283 283 282 282
285 284 283 283 282 281 281 281 282 282 282 285 286 287 288 287 286 285 285 284 287 287 288 287 286 284 284 284 284 284 283 283 282 282 282 283 283 283
283 282 282 282 281 280 281 280 280 280 282 283 284 285 286 287 287 287 286 285 287 288 287 285 284 283 283 284 283 283 283 282 282 282 282 282 284 285
281 281 281 280 280 280 280 279 279 279 280 282 283 284 286 287 287 287 286 286 287 287 285 285 284 284 283 283 283 283 282 282 282 282 283 283 283 285
281 280 280 279 279 279 279 278 278 277 278 279 281 283 285 286 287 287 286 286 287 287 286 285 285 284 284 284 283 282 282 282 283 283 283 283 284 284
279 279 279 279 279 278 278 277 277 277 277 278 280 282 283 284 286 287 286 287 287 286 286 285 285 285 284 283 283 283 283 283 283 283 283 282 283 283
278 278 278 278 278 277 277 276 275 275 275 276 277 279 281 282 285 286 287 287 286 286 286 286 285 284 284 283 283 283 283 283 283 283 282 282 283 283
278 278 277 277 276 276 275 274 274 274 274 274 275 277 279 281 282 285 287 287 287 286 286 286 285 284 283 283 283 283 283 283 283 281 282 282 282 283
276 276 275 275 275 274 273 273 272 272 272 273 273 275 276 278 281 283 285 286 286 286 286 286 285 284 283 283 283 283 283 283 282 282 282 282 282 282
275 274 274 274 273 272 272 271 271 271 271 271 272 273 274 276 279 279 282 285 285 285 285 285 285 284 283 283 283 283 282 282 283 283 282 282 282 282
274 273 273 272 271 271 271 270 270 270 270 270 270 271 272 273 276 278 280 283 284 285 286 285 285 283 283 283 282 282 281 282 282 281 282 282 283 283
272 272 271 270 270 270 269 269 269 269 269 269 269 270 271 273 274 277 278 281 284 285 285 285 284 283 282 282 281 281 281 281 281 282 281 283 283 282

GFSNE_850_thetae_078.txt.gz
Theta_e
316 315 314 313 312 309 308 307 307 303 303 304 300 300 299 297 296 294 294 295 295 295 295 295 294 294 294 293 293 292 290 287 287 286 286 286 287 288
317 315 313 312 309 308 307 307 305 303 300 300 299 299 298 297 296 295 294 294 295 295 294 294 293 294 293 293 292 290 289 287 286 286 285 285 287 287
316 314 311 309 307 306 306 305 302 301 300 299 299 298 298 297 295 294 294 293 294 294 294 294 293 293 293 291 290 289 288 286 286 286 285 285 286 286
313 310 309 307 306 305 304 301 300 300 299 299 298 297 297 297 295 295 295 294 293 293 293 292 292 292 292 291 291 289 287 287 286 286 285 285 285 285
310 308 307 305 303 302 300 299 299 299 298 298 297 297 296 296 296 295 295 295 294 294 293 293 292 292 292 291 291 288 289 286 286 286 285 285 285 285
307 306 303 301 300 299 299 299 298 298 297 297 297 296 296 295 295 295 294 294 294 293 293 292 291 291 291 290 289 289 287 287 286 286 285 285 285 285
304 302 300 300 299 298 298 297 297 297 296 295 295 294 294 294 293 292 292 292 292 292 292 291 292 290 290 289 289 288 287 287 286 285 285 285 285 284
302 301 299 298 297 297 297 297 296 294 294 293 293 293 292 291 290 287 287 289 290 290 291 290 290 290 289 289 288 287 286 286 285 285 285 285 284 284
299 297 298 297 295 293 291 291 291 291 291 288 286 284 283 283 282 282 284 287 288 288 288 289 290 290 289 288 288 286 286 285 285 285 285 284 284 284
295 293 292 291 290 290 289 287 286 285 284 284 283 283 283 284 284 283 283 283 283 283 284 287 288 288 289 288 288 287 286 285 285 284 284 284 284 284
293 293 291 289 287 285 284 284 284 284 283 283 283 283 283 285 286 286 285 285 285 284 283 285 285 287 289 288 287 286 284 285 285 284 284 283 283 283
292 288 286 285 284 283 283 282 282 282 282 282 282 282 282 284 286 287 287 286 285 284 284 285 286 287 288 288 286 284 284 285 284 283 283 282 282 282
287 285 284 283 282 282 282 281 281 281 280 280 280 280 281 283 285 285 286 286 286 285 285 285 286 288 287 285 284 284 284 284 283 283 282 282 282 282
285 284 282 281 281 280 280 280 280 280 279 279 279 279 280 283 284 285 286 286 286 286 285 285 287 286 285 284 284 283 283 283 282 281 281 282 282 282
283 281 280 280 280 279 279 279 279 279 279 278 278 278 279 281 283 285 285 286 286 286 286 286 287 285 284 283 283 283 283 282 282 282 282 282 283 284
280 280 279 279 279 279 279 278 278 277 277 276 276 277 277 280 282 283 284 286 286 286 286 287 285 285 284 284 284 284 283 282 282 282 283 283 283 283
279 279 279 279 279 278 278 277 276 276 275 275 275 276 276 278 280 282 283 285 285 286 286 287 286 285 285 284 284 283 283 283 282 283 283 283 282 282
278 278 278 278 277 277 276 276 275 274 274 273 273 274 275 276 278 280 282 283 285 286 286 286 286 285 285 284 284 283 283 283 283 283 283 282 282 282
277 277 277 276 276 275 275 274 273 273 272 272 272 272 273 274 276 278 280 282 283 286 287 286 286 286 285 284 284 283 283 282 283 282 281 280 282 282
277 276 275 275 274 274 273 273 272 271 271 271 271 271 271 272 274 276 278 279 280 283 286 286 286 286 285 285 284 283 283 283 283 282 282 282 282 282
275 274 274 273 273 272 272 271 271 271 270 270 270 271 271 271 272 274 275 278 279 281 284 285 285 285 285 284 283 282 283 283 282 282 282 282 282 282
273 273 272 272 271 271 270 270 270 270 270 270 270 270 270 270 271 272 274 276 278 279 283 284 284 285 284 284 283 283 282 282 282 282 282 282 282 282
272 271 271 270 269 269 269 269 269 269 269 269 269 269 269 270 270 271 273 274 276 278 280 283 284 285 284 283 283 282 281 281 281 281 281 281 282 282

GFSNE_850_thetae_081.txt.gz
Theta_e
320 320 319 317 315 314 313 312 309 308 307 306 306 306 302 299 299 298 297 296 295 293 294 295 294 294 294 294 294 293 293 292 291 290 289 288 287 288
320 320 318 317 314 313 312 310 308 307 306 305 305 303 300 299 298 298 297 296 294 294 293 293 294 294 294 293 293 293 293 292 291 290 289 288 288 288
320 317 317 315 313 311 309 308 307 306 305 304 302 300 299 298 297 296 296 294 294 295 294 293 293 293 293 293 293 292 293 291 291 290 288 288 288 288
316 316 314 313 311 309 307 306 306 304 301 301 299 299 298 297 297 296 295 295 295 295 295 295 294 294 294 293 292 292 292 291 290 289 287 287 287 287
315 314 312 309 308 307 305 303 301 300 299 299 298 298 297 297 296 295 295 295 294 294 294 294 293 293 293 292 292 292 292 291 290 289 288 286 286 285
313 311 308 306 305 303 302 301 300 299 298 298 298 297 296 296 295 294 293 292 291 291 290 291 291 292 290 292 291 291 291 291 289 289 287 287 286 285
310 308 306 305 303 301 300 299 298 297 297 296 296 296 295 294 292 290 289 286 285 284 284 284 285 288 291 291 291 291 290 289 289 288 287 286 285 285
307 306 303 302 301 299 298 297 296 296 296 295 292 291 290 288 285 284 284 284 284 284 284 285 285 288 288 288 289 290 289 289 288 287 286 286 285 285
304 302 301 300 299 298 298 297 294 291 290 289 287 285 284 284 283 283 284 284 284 284 283 284 284 284 283 286 289 289 289 288 288 286 286 285 285 284
301 300 297 295 293 292 291 290 289 286 284 284 283 283 283 283 282 282 285 285 286 286 286 285 285 285 283 283 284 288 289 287 287 286 285 285 285 284
297 295 294 293 292 289 286 285 284 283 283 283 283 282 282 281 281 282 284 285 286 287 287 285 286 285 283 284 285 287 288 287 286 285 285 285 284 283
295 293 292 288 286 284 283 283 283 283 283 283 282 282 281 281 280 281 283 283 283 285 286 285 286 285 284 285 287 288 287 286 285 285 284 284 283 283
292 289 286 284 283 282 282 282 281 281 281 280 280 280 280 280 279 280 282 282 282 283 285 285 285 285 283 285 286 286 284 284 284 284 284 283 283 282
288 287 285 282 281 281 280 280 280 279 279 279 279 279 279 278 279 279 280 283 283 284 285 285 285 285 285 285 285 284 284 283 283 283 282 281 281 281
287 285 282 281 280 280 279 279 279 279 278 278 278 277 277 278 278 278 279 281 283 284 285 286 285 285 285 285 284 283 283 283 282 282 281 282 282 282
285 281 280 280 279 279 279 279 278 278 277 277 276 277 276 277 277 277 277 279 281 283 285 286 286 286 285 285 284 283 284 283 282 282 282 282 282 283
281 281 280 279 278 278 278 277 277 276 276 275 275 275 275 275 276 276 276 278 279 281 284 285 285 286 286 285 284 284 284 283 282 282 282 283 282 282
280 278 278 277 277 277 276 276 275 275 274 273 273 273 274 274 274 274 275 276 278 280 282 284 285 285 285 285 285 284 284 283 283 282 283 282 281 282
279 278 277 276 276 275 274 274 273 273 272 272 272 272 272 272 272 273 273 274 277 279 281 282 284 286 285 285 285 284 284 283 283 282 282 282 281 282
277 276 275 274 274 273 273 272 272 271 271 271 271 271 271 271 271 271 271 273 275 277 280 281 283 286 286 285 285 285 284 283 283 282 282 282 282 282
274 274 273 273 272 272 271 270 270 269 269 269 270 270 270 270 270 270 271 272 273 275 277 280 282 284 285 285 285 285 283 282 283 282 282 282 282 281
272 272 271 271 271 270 269 269 269 269 269 269 269 269 270 270 269 269 270 271 272 274 276 279 282 284 283 284 284 284 283 282 282 282 282 282 282 282
270 270 269 269 269 268 268 268 268 268 268 269 269 269 269 269 269 269 269 270 271 273 275 278 280 283 283 284 284 283 282 282 281 281 281 281 281 282

GFSNE_850_thetae_084.txt.gz
Theta_e
323 322 321 321 320 319 317 316 313 311 310 310 309 308 307 305 303 300 299 298 297 296 295 294 293 293 293 294 294 294 294 294 293 294 294 293 292 291
321 320 322 321 319 318 316 313 311 311 309 308 307 307 306 304 301 299 298 297 297 296 294 294 294 293 293 293 293 293 293 293 293 293 294 293 292 291
316 321 321 320 319 315 314 312 311 309 308 307 306 305 304 302 300 298 297 297 296 295 295 295 295 295 295 294 294 294 293 293 293 292 293 293 292 291
318 319 320 319 316 314 312 312 310 308 306 306 305 302 300 299 299 298 296 296 296 295 294 294 294 293 294 293 294 294 293 293 293 292 292 292 291 290
320 320 318 315 314 313 311 308 306 305 304 302 301 300 299 298 298 297 296 295 295 294 292 289 288 288 288 288 290 291 293 291 291 291 291 292 290 289
319 318 315 314 312 311 309 307 305 302 301 300 299 298 298 297 296 295 295 292 289 287 287 286 286 286 286 285 285 286 289 291 291 290 291 291 289 288
317 315 313 311 310 308 305 304 301 300 299 298 297 296 296 296 293 290 288 286 286 286 287 286 286 286 286 285 285 285 289 291 290 291 290 289 289 288
315 313 310 308 306 305 303 301 299 298 296 296 295 294 291 289 286 284 284 284 284 285 284 285 285 285 286 285 286 285 287 287 288 289 290 289 288 287
309 307 307 304 303 300 299 298 297 296 294 291 289 287 285 284 284 284 283 283 283 284 284 284 285 286 286 286 286 284 283 286 288 289 289 288 287 286
306 304 301 300 299 297 294 292 291 290 288 286 284 284 283 283 282 282 282 282 283 283 283 283 284 285 286 286 286 285 283 283 287 289 288 287 286 286
302 300 297 296 294 292 291 288 286 285 284 283 283 282 282 281 281 280 281 280 281 282 282 283 284 285 285 286 286 283 285 285 286 288 285 286 286 285
297 296 294 293 290 288 285 284 283 283 282 282 282 281 281 280 280 279 279 280 281 281 283 283 283 283 284 285 285 284 285 287 286 287 286 286 285 285
294 293 291 289 287 285 284 282 282 281 281 281 280 280 280 280 279 279 278 278 279 280 281 282 283 283 283 284 285 284 284 286 286 285 285 284 284 284
291 289 288 287 285 282 281 280 280 280 280 280 279 279 279 279 278 278 278 278 278 278 280 281 282 283 283 284 284 284 285 284 284 284 284 284 283 283
288 287 286 284 281 280 280 280 280 279 279 279 278 278 277 277 277 277 277 276 277 277 278 280 282 283 284 284 284 284 284 283 283 283 283 282 281 281
286 285 283 281 282 282 280 279 279 278 278 277 277 277 276 276 275 275 275 275 276 278 278 279 281 283 284 285 284 284 283 283 283 283 282 282 282 282
282 282 283 281 280 278 278 278 277 276 276 276 276 275 274 274 274 274 274 274 274 275 277 278 280 282 284 284 285 285 284 283 283 283 282 282 282 283
281 280 279 279 278 277 277 276 276 275 274 274 273 273 273 272 272 272 272 273 273 274 275 277 279 282 284 284 284 285 284 284 283 283 283 282 282 282
278 278 277 276 276 275 274 274 273 273 272 272 271 271 270 271 271 271 271 272 273 273 274 275 278 278 279 283 284 284 285 284 284 283 283 282 282 281
276 275 274 274 273 273 272 272 271 271 270 270 269 269 269 269 270 270 270 271 271 272 273 275 276 276 277 279 283 285 285 284 283 283 282 282 282 282
273 273 272 272 271 271 270 270 269 269 268 268 268 268 268 268 269 269 269 269 270 270 271 273 275 277 279 280 282 285 285 284 283 282 282 282 282 282
271 271 270 269 269 268 268 268 268 267 267 267 267 268 268 268 269 269 269 269 269 270 270 272 275 277 278 280 283 285 284 284 282 282 282 282 281 282
268 268 267 267 267 266 266 266 266 266 266 266 267 267 268 268 268 268 269 269 269 269 270 272 274 276 278 281 283 284 284 283 282 282 282 282 282 281

GFSNE_850_thetae_090.txt.gz
Theta_e
316 318 320 321 321 320 321 320 316 316 314 317 316 315 315 313 312 311 309 309 307 305 303 301 301 299 298 297 296 296 295 294 293 293 293 293 297 298
319 319 317 318 320 320 319 318 318 318 314 315 315 315 314 312 310 309 308 307 306 303 302 301 300 299 297 296 294 293 293 293 292 292 292 292 295 296
315 314 313 315 319 320 320 319 316 316 317 315 313 311 312 311 310 308 306 306 303 300 300 300 298 297 296 295 295 294 293 293 293 293 293 293 293 294
317 317 319 319 320 319 319 319 317 316 317 312 311 312 311 310 309 307 305 304 300 300 299 299 298 297 296 294 294 294 292 290 289 290 290 292 293 294
322 317 318 319 319 319 319 319 317 317 316 312 312 311 309 307 306 305 303 302 299 298 299 298 297 295 295 292 289 288 287 287 287 286 286 286 286 286
321 319 320 320 319 318 319 318 316 313 312 312 310 308 306 305 303 302 299 298 297 295 294 296 294 290 288 288 287 287 287 287 286 286 286 286 286 286
322 319 320 318 317 318 316 313 313 313 311 309 307 304 303 301 299 298 297 295 293 291 290 288 287 287 287 287 287 287 287 286 286 286 286 286 286 286
320 318 318 316 315 314 310 310 308 306 305 303 302 299 296 295 294 293 291 290 289 288 288 289 287 286 286 287 287 286 286 285 285 286 286 286 286 286
316 313 311 310 307 305 307 304 304 302 300 298 296 295 292 290 289 288 287 287 287 287 287 288 288 287 287 287 286 286 286 285 285 285 285 285 285 285
309 306 304 304 301 301 300 299 298 297 296 295 292 290 289 288 287 284 284 284 285 286 286 286 287 288 287 287 287 286 285 285 284 284 285 285 285 284
304 302 301 300 297 298 297 296 294 293 291 287 286 286 285 284 283 282 282 284 285 285 285 285 285 285 286 287 287 286 286 286 284 284 285 284 286 285
300 299 297 296 296 296 293 292 290 287 288 286 284 284 284 285 285 283 281 282 282 283 285 285 285 284 284 285 286 287 286 286 286 285 285 285 285 286
296 295 293 293 293 293 292 290 288 287 285 284 282 281 281 280 280 280 280 280 280 281 281 280 281 282 281 282 283 283 284 284 285 286 286 286 286 286
293 292 291 290 289 288 287 285 283 281 280 281 281 280 280 280 279 278 278 278 277 278 278 278 278 278 280 280 281 282 282 283 285 286 287 286 286 286
290 289 288 287 286 283 282 282 281 280 279 279 279 279 279 278 277 276 276 276 276 275 276 276 276 277 278 279 280 281 281 282 283 286 287 286 285 285
286 284 283 282 281 281 280 279 279 278 277 277 277 277 276 276 276 276 276 276 276 276 277 277 276 276 277 278 279 279 280 281 283 286 286 286 286 286
282 281 280 280 280 280 279 278 277 276 276 275 275 275 274 274 274 274 274 274 274 275 276 276 276 275 276 276 277 278 279 280 281 283 286 286 286 285
280 279 279 278 278 277 277 276 275 275 274 273 272 272 272 272 272 272 272 272 273 273 274 274 274 275 275 276 277 278 279 281 281 283 286 286 285 285
277 276 276 275 275 275 274 274 273 272 271 271 271 270 270 270 270 270 271 271 272 272 273 273 273 274 275 276 277 277 279 279 281 284 286 285 285 286
274 274 273 273 272 272 271 271 270 270 269 269 268 268 268 268 269 269 270 270 270 270 271 271 273 273 274 274 274 274 275 277 280 283 285 285 285 285
271 271 271 270 270 269 269 268 268 268 267 267 267 267 267 267 268 268 269 268 269 270 271 271 271 271 271 272 273 274 277 278 279 282 285 285 285 285
269 269 268 268 267 267 267 267 267 267 267 266 266 266 266 267 267 267 268 268 269 269 270 270 271 271 272 272 273 274 276 278 282 284 285 285 285 285
267 267 267 267 266 266 266 266 266 265 265 265 265 266 266 266 266 267 267 268 268 269 269 270 270 271 271 272 273 274 274 278 280 285 285 284 284 283

GFSNE_850_thetae_093.txt.gz
Theta_e
319 318 318 317 317 319 320 321 321 321 319 319 318 318 316 315 317 315 315 313 312 311 310 309 308 306 305 303 302 301 300 299 298 298 298 298 297 295
319 319 317 317 317 318 316 317 316 318 317 318 318 316 316 316 317 315 314 312 311 310 309 308 307 305 304 302 301 299 298 297 296 294 293 293 292 292
319 319 318 315 315 315 315 316 316 316 317 317 317 316 316 316 315 312 311 311 310 310 309 308 306 304 302 301 300 298 296 295 294 294 293 293 293 292
320 319 317 315 315 318 319 318 318 319 317 316 315 316 315 314 314 312 310 310 309 308 307 306 303 300 300 300 299 298 296 295 294 294 293 292 291 291
320 319 316 317 323 321 320 318 318 319 318 316 314 315 313 312 311 310 310 307 306 305 303 300 300 300 300 299 298 297 295 294 293 290 288 287 287 287
320 321 323 322 321 320 319 319 318 317 316 313 312 311 310 310 309 308 305 304 304 302 300 299 297 296 296 296 296 294 291 288 288 287 287 287 287 287
322 322 322 321 320 319 318 316 314 312 310 309 309 308 307 305 304 302 300 300 299 298 298 296 294 292 290 289 289 288 288 287 287 287 287 286 286 286
321 320 319 317 316 315 313 312 308 306 305 304 303 303 300 298 297 296 295 294 293 293 292 290 291 290 289 288 288 289 287 287 287 287 287 286 286 286
318 316 313 312 310 308 306 305 303 302 301 301 299 298 297 296 294 293 292 291 290 290 289 289 288 289 288 288 288 288 288 287 286 286 286 285 285 285
312 309 307 306 304 302 301 300 300 299 298 297 296 295 294 294 293 291 288 287 287 286 287 286 286 286 287 288 288 288 288 287 287 287 286 285 284 284
305 303 300 299 299 298 298 297 297 296 296 295 294 293 291 289 285 284 283 282 284 285 286 287 286 286 286 287 286 286 287 287 286 286 286 285 285 284
300 298 296 297 295 295 294 294 293 291 290 289 287 286 285 284 284 284 283 282 283 283 284 284 284 284 285 285 285 285 286 286 285 285 285 285 286 286
296 295 294 294 293 292 291 290 288 287 285 283 283 283 283 283 283 282 282 281 281 281 281 282 281 281 281 282 282 283 284 284 284 284 284 285 286 287
293 292 291 289 288 287 286 283 283 282 282 281 281 282 282 281 281 280 279 279 279 278 278 278 278 278 278 279 279 280 281 282 282 283 284 284 287 287
289 287 286 285 283 282 282 281 280 280 279 279 279 279 279 278 278 278 278 278 277 277 277 278 278 278 277 277 278 278 279 280 281 282 282 283 285 287
284 284 282 282 282 281 281 280 279 278 277 277 277 276 276 276 276 276 275 275 275 275 275 276 277 277 278 277 278 278 278 279 280 281 282 283 285 287
282 282 281 281 280 280 279 278 278 277 276 275 275 274 274 274 273 273 273 273 273 273 274 274 275 276 276 276 276 276 277 277 278 279 280 281 283 287
281 280 279 278 278 277 277 276 275 275 274 273 273 272 272 272 271 271 271 271 272 272 273 273 273 274 274 274 275 276 277 278 279 281 282 282 283 285
278 278 277 276 275 275 274 274 273 272 271 271 271 270 270 270 270 270 270 270 271 271 271 271 272 272 273 274 275 275 275 275 276 278 278 280 282 287
275 275 274 274 273 273 272 271 271 270 270 270 269 269 269 269 269 269 270 270 270 270 270 271 272 272 273 272 272 272 273 274 276 277 278 279 282 286
273 273 272 272 271 271 270 270 269 269 269 269 269 268 268 268 268 269 269 269 269 270 270 270 271 271 271 272 272 273 273 274 275 277 277 279 282 285
271 271 270 270 269 269 269 269 269 268 268 268 268 267 267 267 268 268 268 269 269 269 270 270 270 271 271 271 272 272 273 274 275 276 279 281 282 285
269 269 269 268 268 268 268 267 267 267 267 267 267 267 266 266 267 267 268 268 268 269 269 270 270 270 270 271 271 272 274 274 275 279 282 285 285 285

GFSNE_850_thetae_096.txt.gz
Theta_e
318 317 319 318 317 316 317 317 317 318 319 319 319 319 315 317 317 318 316 316 315 316 316 314 311 306 306 309 309 308 307 305 304 303 303 302 302 302
318 317 318 318 318 318 317 317 317 319 318 316 317 317 316 316 318 318 317 316 317 316 315 312 309 308 310 310 308 307 305 304 302 300 299 298 297 297
318 318 318 319 319 319 318 319 317 317 316 318 317 317 317 318 318 317 316 316 315 315 313 312 311 310 309 308 306 305 304 303 301 299 298 296 295 294
319 321 320 321 321 321 321 320 318 316 318 317 317 318 317 317 317 315 315 315 314 312 311 310 310 307 307 305 303 302 301 300 300 299 297 296 295 294
320 321 321 322 321 321 321 320 320 320 318 318 318 316 316 315 314 313 313 312 310 309 309 309 306 304 301 300 299 298 298 298 299 298 298 297 295 294
322 322 322 322 321 321 321 320 320 318 317 316 315 314 312 311 309 308 308 307 308 304 302 301 300 300 300 299 298 298 298 297 297 297 297 295 291 288
322 322 322 321 321 320 319 318 317 314 313 311 309 307 306 304 303 302 303 302 300 299 299 299 298 297 294 293 294 295 293 291 288 288 288 288 287 287
322 322 319 319 318 317 315 312 311 307 307 304 303 301 300 298 298 298 298 297 298 298 296 297 297 297 297 292 291 290 289 289 289 289 289 290 290 289
320 318 316 312 309 306 306 303 303 302 300 299 298 297 296 296 295 295 295 294 293 294 292 292 292 291 291 290 289 289 289 288 287 288 288 288 287 287
314 309 306 304 302 301 300 299 299 298 297 296 295 295 294 293 293 292 291 291 290 289 287 286 287 287 287 287 288 288 289 289 289 288 287 287 287 287
305 303 300 299 298 297 297 297 296 295 294 293 291 290 287 285 285 285 284 284 283 283 283 283 284 284 285 285 286 286 286 287 287 287 287 287 287 286
300 298 298 297 296 296 294 293 292 290 288 287 285 284 283 283 283 283 282 282 281 281 282 281 281 281 280 281 282 284 285 285 285 284 285 285 285 285
297 295 295 293 292 290 288 287 286 285 284 283 282 282 282 282 282 282 281 280 279 279 279 278 278 278 278 278 278 278 279 280 281 281 282 283 284 284
293 291 289 287 287 286 284 282 282 281 280 279 279 279 279 279 278 278 277 277 277 277 277 277 276 277 277 278 278 278 278 278 278 279 280 281 282 283
289 286 285 283 282 281 280 280 280 279 278 278 277 277 276 275 274 274 274 274 274 274 274 274 274 274 275 276 277 278 278 277 277 278 279 280 281 283
285 283 282 281 281 280 279 278 278 277 276 276 275 274 273 273 272 272 272 272 271 272 272 272 272 273 274 274 274 275 275 276 275 276 277 277 279 280
282 282 280 279 278 278 277 277 276 275 274 273 272 272 271 271 271 271 270 271 270 271 271 271 271 271 272 272 272 273 274 275 276 276 277 278 279 280
280 279 278 277 276 275 274 274 273 273 272 271 271 270 270 270 270 270 270 270 270 270 270 270 270 270 271 272 273 274 273 272 273 274 274 275 277 279
277 276 275 274 274 273 273 272 272 271 270 270 270 269 269 269 269 269 269 269 269 269 269 270 270 271 271 271 271 271 271 272 273 274 275 276 276 277
275 274 273 273 272 272 271 271 270 270 270 269 269 269 268 268 268 268 268 268 268 269 269 269 270 270 270 270 271 271 271 272 273 273 274 275 277 277
273 272 272 272 271 270 270 270 269 269 269 268 268 268 268 268 268 268 268 268 268 269 269 269 269 269 270 270 270 270 271 271 273 274 274 275 276 279
272 271 271 270 270 270 269 269 268 268 267 267 267 267 267 267 267 267 267 267 268 268 268 268 269 269 269 270 270 270 271 272 273 274 275 275 276 277
271 271 270 270 270 270 269 269 268 267 267 267 267 268 268 267 267 266 267 267 267 267 268 268 268 268 269 269 270 271 271 272 273 276 280 281 282 283

GFSNE_850_thetae_099.txt.gz
Theta_e
317 318 317 316 316 317 319 318 317 319 318 317 317 317 317 317 316 318 318 317 316 316 317 317 316 315 315 315 310 308 308 305 304 307 308 307 306 305
317 317 317 318 317 317 317 318 318 318 319 318 319 319 318 317 317 317 317 317 317 317 317 316 315 315 316 313 310 309 308 305 304 307 307 305 303 302
318 317 318 318 318 317 318 318 319 319 320 320 320 319 319 318 317 317 317 317 316 316 316 315 315 314 314 310 308 308 305 304 305 304 301 299 298 298
317 317 318 318 318 318 319 319 321 321 322 322 320 320 319 317 317 316 317 315 314 314 313 314 314 311 309 308 308 306 305 305 303 300 297 297 297 298
318 319 319 320 320 321 322 322 322 322 322 320 319 317 317 315 314 313 313 312 311 310 308 308 308 308 307 306 304 303 302 302 299 297 297 297 297 298
320 320 321 321 322 322 322 322 321 320 319 318 315 315 312 310 309 308 307 306 306 305 305 304 304 304 302 301 301 300 298 297 297 297 297 297 294 292
322 322 322 322 322 322 322 319 319 315 313 312 311 307 306 303 302 301 300 300 300 300 302 300 300 299 298 298 297 297 295 294 293 293 291 289 289 290
322 322 322 322 321 320 317 314 310 310 307 305 303 301 299 297 297 297 296 296 296 296 295 296 295 295 295 295 293 291 291 291 290 290 290 289 289 289
322 320 316 312 310 307 306 303 304 301 301 299 298 296 296 295 294 293 292 291 290 290 290 290 291 290 289 288 288 287 288 288 288 288 288 288 288 288
318 311 306 303 301 300 300 298 299 297 297 296 294 292 290 289 287 286 286 285 285 285 284 283 283 283 283 283 283 283 284 285 286 286 286 286 287 288
305 302 300 300 298 298 297 296 295 294 292 291 288 286 286 285 284 284 283 283 282 282 281 281 281 280 279 279 279 279 280 282 283 283 284 285 285 285
299 299 298 298 297 295 294 293 291 289 287 285 284 283 283 283 283 282 281 280 279 278 278 277 277 277 277 277 277 277 277 277 277 278 278 279 281 282
298 294 292 290 289 290 290 288 286 284 282 281 280 280 280 279 279 279 278 277 276 276 276 275 274 274 274 274 275 274 275 276 276 277 277 277 278 280
292 290 290 289 287 284 283 281 281 280 279 278 278 277 276 275 275 275 274 274 274 273 273 273 272 272 273 273 273 274 274 274 275 275 276 276 276 277
290 289 287 284 282 281 280 279 278 278 277 276 275 274 274 273 273 273 273 273 273 272 272 271 271 272 272 272 271 272 271 272 273 274 275 275 276 277
287 283 282 281 280 279 278 277 276 275 275 274 273 273 273 273 272 272 272 271 271 272 271 271 271 270 270 270 271 272 272 273 273 273 272 273 275 276
283 281 280 279 278 277 276 275 274 274 274 273 272 272 272 272 271 271 270 270 270 269 270 270 270 270 270 271 271 271 271 271 271 271 272 273 274 274
280 279 277 277 276 275 274 274 273 273 272 272 271 271 271 270 270 270 270 269 269 269 269 269 269 269 269 270 270 270 270 270 271 271 272 272 273 274
278 276 276 275 274 274 273 273 272 272 271 271 271 270 270 270 270 269 269 268 268 268 268 268 269 269 269 269 270 270 270 270 270 271 271 272 273 274
276 275 274 274 273 273 272 272 272 271 271 271 271 270 270 270 270 269 268 268 268 268 268 268 268 268 268 269 269 269 270 270 270 271 271 272 273 274
274 274 273 273 272 272 272 271 271 271 271 271 271 270 270 270 269 269 268 267 267 267 267 267 268 268 268 268 269 269 271 271 271 271 272 272 273 275
274 273 273 272 272 272 272 271 271 271 271 271 271 270 270 269 269 269 268 268 268 267 267 267 267 268 268 268 268 269 271 272 273 274 274 274 274 275
273 272 272 272 272 271 271 271 271 271 271 271 270 270 270 269 269 269 269 269 268 267 267 267 267 267 267 268 269 269 270 272 273 277 281 280 280 281

GFSNE_850_thetae_102.txt.gz
Theta_e
318 318 317 317 317 317 317 317 317 318 318 317 318 317 317 318 319 319 319 318 316 317 317 317 317 317 316 316 314 315 315 314 313 312 312 310 308 308
318 318 317 317 317 317 317 318 317 318 319 317 317 318 319 320 321 319 318 318 317 317 317 317 316 317 316 315 314 314 313 312 311 311 309 309 307 306
318 318 318 317 317 317 318 317 318 318 318 318 319 320 321 320 320 319 318 317 317 315 315 315 314 315 313 314 313 312 310 309 308 307 307 307 305 305
316 316 318 318 318 318 318 318 319 319 320 321 321 321 320 319 319 317 317 317 314 314 314 313 313 312 311 311 309 308 306 306 305 304 303 303 303 303
315 316 318 318 318 318 319 319 320 321 320 321 319 320 318 317 316 315 314 313 311 310 308 308 306 305 305 304 304 304 302 301 300 300 300 300 300 299
314 316 318 317 318 320 320 320 320 320 320 319 319 315 312 311 310 309 308 307 306 304 303 302 301 300 299 299 299 298 298 297 297 296 296 295 295 295
315 316 318 319 319 320 321 322 321 319 317 314 311 310 308 306 303 302 301 300 298 299 298 298 297 296 295 295 295 296 295 294 293 292 291 291 291 290
320 320 321 321 321 320 320 318 314 312 311 308 308 305 302 300 298 298 297 297 295 293 294 295 293 292 290 289 288 286 285 286 287 287 287 288 288 289
322 322 321 320 319 315 311 306 303 304 302 303 301 299 298 296 295 294 291 289 288 287 287 287 286 285 284 284 283 282 281 281 282 284 284 285 285 286
320 319 317 311 306 303 301 300 300 298 298 296 296 294 292 290 288 287 287 286 284 282 281 281 281 280 280 279 278 278 278 278 278 278 279 279 280 280
317 310 303 301 299 300 299 297 295 294 291 292 289 286 286 285 284 283 282 281 280 280 279 279 277 277 276 276 276 277 277 275 275 276 276 277 278 278
299 298 297 297 295 293 294 293 292 291 287 286 284 283 282 281 281 280 279 278 276 276 277 275 275 274 273 275 275 274 274 274 274 274 275 276 277 277
297 293 292 290 291 292 290 289 288 284 281 281 281 280 279 278 277 277 276 275 274 274 273 272 272 272 272 272 272 272 272 272 272 272 273 274 275 275
294 293 293 294 293 287 285 283 281 281 280 279 279 278 278 277 276 275 275 274 273 272 272 272 271 271 271 271 271 271 272 271 272 273 273 273 273 274
291 288 286 288 285 283 281 280 279 278 278 278 277 276 275 275 274 274 274 274 273 273 272 272 271 270 270 270 270 271 271 271 272 272 271 271 271 272
289 287 284 281 281 280 278 277 277 277 277 276 275 274 274 273 273 273 273 273 273 273 272 271 271 270 270 270 270 271 270 270 270 270 270 271 271 272
283 282 281 280 279 277 276 276 275 275 275 274 274 273 273 273 272 272 272 271 271 271 271 271 271 270 269 269 270 270 270 270 270 270 270 270 271 271
281 280 279 277 276 276 275 275 274 274 274 273 273 272 272 272 272 272 271 271 270 270 270 270 269 270 270 269 269 269 269 269 270 270 270 270 271 271
279 278 277 276 275 275 275 274 274 273 272 272 272 272 272 272 271 271 271 270 270 270 270 269 269 268 267 268 269 269 268 270 269 269 270 270 271 272
277 276 275 275 274 274 273 273 272 272 272 272 272 272 271 271 271 271 270 270 270 270 270 270 269 268 267 267 268 272 272 269 269 270 270 271 272 274
276 275 274 274 274 273 272 272 272 272 272 272 272 271 271 271 271 271 271 271 271 270 270 270 269 269 269 268 268 271 274 273 271 270 271 272 274 278
275 274 273 273 272 272 272 272 272 272 272 271 271 271 271 271 271 271 271 271 270 270 270 270 270 270 269 268 269 270 273 276 277 277 277 277 276 278
273 272 273 272 272 272 272 272 272 272 271 271 271 271 271 271 271 271 271 270 270 271 270 271 271 270 270 270 269 270 272 275 277 281 282 281 280 280

GFSNE_850_thetae_105.txt.gz
Theta_e
317 317 317 318 319 318 318 317 318 318 317 316 317 317 317 316 317 319 320 320 319 319 318 318 316 317 316 316 317 316 316 315 313 313 314 314 313 313
316 317 318 319 318 317 317 318 317 317 318 318 317 317 317 318 320 320 320 319 320 319 318 317 317 317 316 314 315 315 314 314 313 313 312 310 310 310
317 318 317 317 317 318 318 318 317 318 318 318 318 318 319 319 319 319 319 319 318 318 318 316 316 315 313 313 313 313 312 311 311 309 309 308 307 307
317 318 318 318 318 318 318 318 318 318 318 319 319 319 320 321 320 318 318 317 316 315 314 314 313 312 311 309 308 307 307 307 305 305 305 305 304 304
316 317 318 318 317 316 318 318 317 317 319 320 320 320 320 319 318 316 315 312 311 311 308 306 305 303 303 302 301 301 301 300 300 300 299 300 300 300
316 317 316 316 315 315 316 318 317 318 319 319 319 317 316 314 313 311 309 308 305 303 301 300 299 298 297 297 296 296 296 295 295 294 294 293 293 293
315 315 315 315 315 314 315 317 318 319 318 316 315 312 311 308 307 306 305 303 302 300 298 296 295 294 293 292 290 288 287 287 287 287 288 289 290 290
314 315 315 315 316 317 317 318 320 318 317 313 310 306 306 302 299 297 296 297 296 293 295 292 290 288 287 285 284 283 282 281 281 281 281 281 282 283
316 316 316 317 319 318 316 314 310 307 305 304 303 301 297 298 296 293 290 289 289 287 285 284 283 282 282 281 280 280 280 279 278 278 277 277 278 277
318 319 319 318 314 308 305 304 302 300 300 298 296 295 295 292 290 288 287 284 282 281 280 280 280 279 279 279 279 279 278 276 276 276 276 275 275 276
318 317 312 307 302 299 299 300 298 297 295 295 294 295 290 286 284 283 282 281 280 279 279 277 277 277 278 278 278 277 276 276 276 276 276 275 275 275
313 305 300 299 295 294 295 295 295 294 292 291 287 284 284 282 281 280 279 278 277 277 276 276 276 275 274 274 275 276 276 275 275 274 274 274 274 274
301 294 292 293 294 295 293 292 291 288 285 282 281 280 279 278 278 278 277 276 275 275 274 273 273 273 272 272 272 273 273 273 272 272 272 272 272 272
293 292 292 293 292 291 291 287 284 282 281 279 279 278 277 277 277 276 275 275 274 273 273 273 272 271 270 271 271 272 273 272 271 271 271 271 271 271
293 293 292 291 288 286 283 281 280 279 278 278 277 277 276 276 275 275 275 275 274 274 273 272 272 271 271 270 270 272 272 272 271 270 271 270 270 270
294 290 288 286 283 280 279 278 278 278 278 277 276 276 275 275 275 275 275 275 275 275 273 273 272 271 271 271 270 272 272 270 271 271 271 271 271 271
289 287 283 281 280 279 278 277 277 276 276 276 275 275 275 274 274 274 273 273 273 273 273 273 273 272 272 271 272 272 272 271 271 271 271 272 272 271
284 282 280 278 278 277 276 276 275 275 275 275 275 274 274 274 273 273 273 273 273 273 272 272 272 272 272 271 271 272 271 271 271 271 270 270 272 274
281 279 278 277 276 276 276 275 275 275 274 274 274 273 273 273 273 273 273 273 273 273 273 272 271 270 270 270 272 272 270 271 271 271 271 270 271 276
278 278 277 276 276 275 275 274 274 274 273 273 273 273 272 272 272 273 272 272 273 273 273 272 271 270 269 269 270 275 273 271 271 271 273 274 276 278
277 276 275 275 275 274 274 273 273 273 272 272 272 272 272 272 272 272 272 272 272 272 273 273 272 272 271 271 271 275 278 276 274 273 277 277 279 279
276 275 275 274 274 274 273 272 272 272 272 272 271 271 272 272 272 272 272 272 272 272 272 273 273 272 272 272 273 274 277 280 280 279 280 280 280 280
274 274 274 273 273 273 272 273 272 272 271 271 271 272 272 272 272 272 272 272 272 272 272 273 273 273 273 273 273 275 277 279 280 281 281 281 282 282

GFSNE_850_thetae_108.txt.gz
Theta_e
317 317 317 317 316 317 317 319 318 318 317 317 317 317 317 317 317 317 318 318 319 319 320 319 319 319 318 317 317 317 317 316 315 315 314 315 314 314
316 316 316 317 317 317 318 318 317 317 318 317 317 317 318 318 318 319 319 318 318 319 318 318 317 316 318 316 315 315 315 314 312 312 312 312 312 311
315 318 316 316 316 318 318 317 317 318 318 318 318 318 318 318 319 318 318 320 319 318 318 318 316 315 316 315 314 313 312 311 311 310 309 309 308 308
317 319 317 315 315 317 318 317 317 317 318 319 318 317 317 319 319 319 319 317 316 317 314 310 310 307 308 308 308 307 306 304 303 303 302 302 301 302
320 319 317 317 316 318 317 318 317 316 317 319 318 317 319 319 318 317 313 312 312 307 307 305 302 300 300 300 299 299 298 297 297 297 296 296 296 296
317 315 316 317 317 317 318 317 316 316 316 317 317 318 317 317 314 311 309 306 304 302 300 300 297 296 295 295 292 290 288 288 288 287 286 286 285 285
314 315 315 316 316 317 316 315 315 314 315 316 316 315 314 310 307 306 304 301 300 298 297 297 296 293 289 287 285 284 284 283 282 282 281 281 281 281
314 315 315 315 316 315 315 315 315 315 316 316 315 310 306 302 299 297 296 294 292 292 291 288 285 284 283 282 282 282 282 281 280 278 278 279 279 278
314 315 315 314 314 315 315 315 316 315 314 310 305 300 298 296 294 294 293 290 285 284 283 282 282 282 282 281 281 281 280 278 277 277 277 277 277 277
315 316 316 316 315 316 315 313 310 307 304 302 300 298 296 295 293 291 287 284 283 282 281 281 281 281 281 280 280 279 277 277 277 277 277 276 276 276
317 316 314 312 310 306 303 303 302 300 297 296 295 294 294 292 287 283 282 281 281 280 279 278 277 278 278 278 278 277 277 276 276 276 276 275 275 275
315 313 308 305 298 296 298 298 297 295 293 292 291 289 283 282 281 281 280 280 280 279 277 277 277 276 274 274 275 276 276 276 276 275 275 275 274 274
309 303 297 295 295 295 295 295 295 292 290 289 285 281 280 279 279 279 279 278 277 276 275 275 275 274 274 273 275 275 274 274 274 274 273 273 273 272
303 295 293 293 293 292 292 291 291 288 284 281 280 280 279 279 278 277 277 276 276 275 275 274 274 273 273 273 273 274 274 274 273 273 273 274 274 274
294 294 295 294 293 291 289 285 281 281 280 279 279 278 278 277 276 276 276 275 275 274 274 274 274 274 273 273 272 274 273 274 274 274 275 274 273 273
295 293 290 290 289 287 281 280 279 279 279 279 278 277 276 276 276 276 276 276 276 275 274 274 274 274 274 274 274 275 274 273 275 274 274 274 275 274
291 289 288 286 282 280 279 279 278 278 278 277 276 276 276 276 276 275 275 275 275 275 275 275 275 274 274 274 276 274 275 275 274 274 273 275 277 276
289 287 282 280 279 278 278 277 277 276 276 276 276 275 275 275 275 274 274 275 274 274 274 274 274 275 275 276 276 274 274 274 274 274 273 275 279 279
283 280 279 278 278 277 277 276 276 275 275 275 275 275 274 274 274 274 274 274 274 274 274 274 273 273 273 275 277 275 273 275 276 278 277 278 279 280
279 279 278 277 277 276 276 275 275 275 275 275 274 274 274 274 274 274 274 274 274 274 274 274 273 272 272 272 273 278 275 276 277 279 280 281 281 281
277 277 277 276 275 275 275 275 275 275 274 274 273 273 273 273 273 273 273 273 274 274 274 273 273 273 273 274 274 277 280 278 278 279 280 281 282 282
277 276 275 274 274 274 275 274 274 273 273 273 273 273 272 272 273 273 273 273 273 273 273 273 274 274 273 274 275 277 279 280 280 280 280 281 281 281
275 275 274 274 274 274 274 273 273 272 272 272 272 272 272 272 272 272 273 273 272 273 273 274 274 274 273 274 276 278 279 280 280 281 281 281 281 281

GFSNE_850_thetae_111.txt.gz
Theta_e
318 318 317 317 317 317 317 316 317 318 317 318 317 317 317 317 317 318 318 318 318 318 319 318 318 318 318 319 317 316 317 316 315 315 314 314 312 312
313 316 316 317 316 316 316 317 318 318 318 317 317 317 317 317 318 318 318 319 319 318 318 318 319 318 317 318 317 315 315 315 314 313 312 310 309 309
314 316 317 316 315 316 316 315 317 318 317 317 317 318 318 318 318 317 317 318 317 318 317 317 317 317 317 315 313 312 310 309 308 306 305 304 303 302
318 319 318 316 315 314 314 315 317 317 318 317 316 316 319 319 317 317 318 317 315 313 313 313 311 308 307 304 302 301 300 301 300 299 298 297 296 297
318 316 316 316 315 316 315 315 315 316 318 317 317 317 318 317 316 315 314 311 308 307 306 304 302 302 300 299 298 297 294 291 289 288 287 286 286 286
316 315 316 317 317 317 316 316 316 317 317 318 317 317 317 315 313 312 309 307 303 300 300 298 296 296 296 291 287 286 285 285 284 284 283 283 283 283
317 318 320 319 318 318 317 317 317 318 317 316 315 314 314 313 311 308 303 300 297 296 296 294 292 288 287 287 286 285 284 283 282 281 281 281 281 281
319 320 319 316 315 315 316 316 317 316 315 314 314 313 311 308 304 299 298 297 295 293 292 292 289 286 283 282 282 282 281 280 280 280 280 279 279 279
318 317 315 314 315 316 316 316 315 314 314 313 312 309 305 301 297 296 295 294 293 290 287 283 282 282 282 282 281 280 279 279 279 279 279 278 278 277
316 315 315 314 314 314 314 314 313 313 311 308 306 302 298 296 293 294 292 288 284 282 281 281 281 281 281 281 280 279 278 279 279 278 277 277 277 277
315 315 315 314 314 314 313 312 309 306 301 297 296 294 293 293 290 287 283 281 280 280 280 279 279 279 280 280 279 278 278 278 278 277 277 277 277 277
315 314 313 311 310 308 307 304 303 299 295 294 293 293 291 285 282 281 281 281 280 279 278 279 278 276 276 277 278 277 278 278 278 278 278 278 278 277
315 313 309 303 300 296 297 297 298 295 293 292 290 286 282 280 281 281 280 279 278 278 277 277 277 276 275 274 277 277 276 277 277 277 276 277 277 276
311 304 298 294 294 294 294 293 292 291 290 286 281 280 280 279 279 279 278 278 278 277 277 277 277 276 275 274 275 276 277 277 276 275 276 278 278 276
301 295 293 293 294 292 290 289 290 284 281 280 280 279 279 278 278 278 277 277 277 276 276 276 276 276 275 275 275 275 274 275 275 274 276 277 278 280
292 292 293 291 289 289 289 284 281 280 280 279 279 279 278 277 277 277 277 276 276 276 276 276 276 276 276 276 275 275 274 274 275 277 279 279 280 280
290 287 287 288 288 286 280 278 278 279 279 279 278 277 277 277 276 276 276 276 276 276 276 276 276 276 276 276 276 274 275 277 278 280 280 281 281 282
289 289 289 287 282 279 278 278 277 278 278 277 277 276 276 276 276 276 276 276 275 275 275 276 276 277 277 276 277 277 278 279 279 280 280 280 283 282
290 286 282 279 278 278 278 277 277 277 277 276 276 275 275 275 275 276 275 275 275 275 275 275 275 275 274 275 279 277 278 279 280 280 280 281 282 281
281 280 278 278 278 277 277 277 277 276 276 275 275 275 275 275 275 275 275 275 275 274 274 274 274 274 275 274 276 279 277 278 279 280 281 282 282 281
278 278 278 277 276 277 277 276 276 275 275 274 274 274 274 274 274 274 274 274 274 274 274 274 274 275 275 276 275 279 279 279 279 280 281 281 281 281
277 277 277 276 276 276 275 275 275 274 274 274 274 273 273 273 273 273 273 273 274 274 274 274 275 275 274 275 276 278 280 280 280 280 281 280 280 280
277 276 276 275 275 275 274 274 274 274 273 273 273 272 272 272 272 272 273 273 273 273 274 274 275 274 274 275 276 278 279 281 281 281 281 281 281 281

GFSNE_850_thetae_114.txt.gz
Theta_e
321 321 321 322 321 317 320 320 319 320 319 318 318 317 317 317 317 317 317 317 318 318 318 319 319 319 319 318 319 319 318 318 317 315 314 315 313 312
319 321 321 319 318 317 317 318 318 319 320 318 318 317 316 317 318 317 317 317 318 317 317 317 318 317 318 318 317 317 316 316 315 312 310 309 307 306
315 319 319 319 318 317 316 314 316 317 317 318 318 317 317 317 316 318 318 318 317 317 317 316 317 316 315 312 313 311 309 307 305 303 301 300 300 298
316 316 314 310 314 314 315 313 313 315 316 316 315 317 317 316 316 317 316 316 316 315 315 313 312 308 306 303 301 300 300 298 295 291 292 292 289 287
311 313 310 315 317 316 317 316 314 315 315 314 314 317 317 317 317 316 315 313 312 309 305 304 302 300 301 298 297 297 295 294 291 288 286 285 285 285
312 310 311 315 317 318 317 315 315 315 314 314 315 317 317 316 316 313 311 309 306 301 299 298 298 297 297 297 296 293 288 286 285 284 284 284 283 283
313 311 312 317 318 317 317 316 316 316 316 316 315 317 316 315 314 312 307 302 300 297 296 296 295 294 293 290 286 285 283 283 283 282 282 282 281 281
318 316 316 316 317 316 316 316 318 317 317 317 317 316 315 314 312 307 301 298 295 294 293 293 291 287 284 283 283 283 282 281 282 281 281 280 280 280
321 319 317 317 317 318 318 317 315 316 317 317 316 314 313 311 306 301 297 295 293 291 291 288 285 283 282 282 281 280 281 281 280 280 280 280 279 279
320 320 319 319 318 319 315 315 316 316 316 315 313 310 308 303 298 295 294 293 292 289 286 283 282 282 282 281 281 281 280 280 280 280 280 280 279 279
318 318 317 317 317 315 314 314 313 312 311 310 309 304 298 294 293 293 293 290 285 282 281 281 280 281 281 280 280 280 280 280 280 280 280 280 280 280
316 316 315 315 315 315 314 312 310 306 302 297 295 294 293 294 294 288 285 282 282 280 280 280 278 278 279 280 279 279 280 280 281 281 280 280 280 280
315 315 314 312 310 310 307 303 302 298 293 293 292 292 289 285 282 281 281 281 280 280 279 279 277 277 277 277 278 278 278 279 279 279 279 279 281 282
315 311 306 304 301 298 296 297 296 293 291 290 290 286 282 280 280 280 280 280 279 279 278 278 277 277 276 278 278 278 279 278 278 278 279 280 282 282
306 300 296 293 294 292 292 289 289 289 289 288 283 280 279 279 279 278 278 278 278 278 278 278 277 277 277 277 277 278 278 279 278 279 280 281 281 280
296 294 292 291 291 289 289 289 288 286 282 280 280 279 279 278 278 278 277 277 277 277 278 278 277 277 278 277 276 277 278 278 279 279 281 282 280 281
293 290 289 288 288 288 288 286 282 280 279 279 279 278 278 277 277 277 277 277 277 276 276 277 277 277 277 277 277 277 278 278 277 278 279 280 281 282
290 288 288 287 287 286 284 281 279 279 279 278 278 278 277 277 277 277 277 276 276 276 276 277 277 277 277 278 277 277 277 276 277 277 279 281 281 282
289 288 287 287 285 280 279 278 279 278 277 277 277 276 276 276 276 276 276 276 276 276 276 276 276 276 276 277 277 279 278 279 278 278 280 279 280 281
287 285 283 279 278 278 278 277 277 276 277 277 276 276 276 276 275 275 275 276 276 276 275 275 275 275 275 274 274 278 277 279 280 281 281 281 282 283
280 279 279 278 278 278 277 277 276 276 276 276 275 275 275 275 275 275 275 275 275 274 274 274 274 276 275 273 275 276 279 279 280 281 281 280 281 283
278 278 277 277 277 277 276 276 275 275 275 275 274 274 274 274 274 274 274 274 273 274 273 273 274 273 273 274 275 276 278 280 280 280 280 280 280 281
278 277 277 276 276 275 275 275 275 275 274 274 274 273 274 274 274 274 273 273 273 273 273 274 273 273 274 274 275 275 276 278 278 279 280 281 281 281

GFSNE_850_thetae_117.txt.gz
Theta_e
320 320 321 322 321 321 321 321 320 321 322 321 321 321 319 318 317 317 317 317 317 317 317 318 318 317 318 317 317 317 317 317 316 316 315 314 312 311
321 319 320 321 322 322 321 322 322 321 321 320 319 317 317 317 317 317 316 317 317 317 317 318 317 317 317 316 315 314 315 314 312 311 309 307 304 302
321 322 322 321 321 321 319 318 319 319 319 319 318 317 317 317 317 316 316 316 316 316 318 317 316 315 316 316 314 311 309 305 303 303 302 302 301 299
322 322 322 321 321 320 318 318 316 315 317 317 316 318 316 316 316 316 316 315 316 316 315 315 314 313 311 308 305 303 302 300 300 300 299 293 289 287
322 322 322 320 320 319 319 314 315 313 313 313 314 314 316 315 314 315 316 314 315 314 314 313 310 305 302 301 299 298 297 295 293 290 286 286 285 285
316 314 315 318 319 318 313 312 315 315 314 314 315 316 315 314 314 314 315 313 312 310 308 304 301 299 297 297 297 295 291 289 286 284 285 284 284 284
309 311 313 315 312 314 312 315 317 317 316 315 315 315 315 315 315 315 315 310 309 304 301 299 297 297 295 296 293 289 286 284 284 283 283 283 282 282
317 310 314 313 314 311 314 317 317 317 317 317 316 316 316 316 316 314 312 306 303 299 297 295 294 292 292 291 284 283 283 282 282 282 281 281 281 281
320 315 312 313 313 311 313 316 318 317 316 316 316 316 316 316 315 312 307 303 298 295 294 293 292 290 286 283 282 281 281 281 281 281 281 281 281 281
321 321 321 319 318 316 316 315 316 316 317 317 316 315 314 312 310 306 302 298 294 292 292 291 286 283 282 281 281 281 281 281 281 281 281 281 281 281
320 320 319 319 319 319 318 317 317 316 316 315 314 313 310 306 300 297 295 293 292 291 286 282 281 282 282 281 280 281 281 282 281 281 280 281 282 283
319 319 319 318 318 317 316 316 316 313 311 311 308 304 298 295 294 293 291 292 289 284 281 282 281 281 281 281 280 280 281 281 281 281 281 281 283 283
318 317 316 315 315 315 314 312 311 310 304 301 298 295 293 292 291 291 290 285 283 282 280 280 280 280 280 280 280 280 280 281 281 281 282 283 283 282
316 314 311 312 309 305 301 301 301 300 296 295 293 292 292 291 287 282 281 281 281 280 280 279 279 279 279 279 280 280 280 281 281 281 282 283 282 282
312 309 306 303 296 295 295 294 291 290 290 290 290 289 283 282 281 280 280 280 280 279 279 279 279 278 278 279 279 279 280 280 281 281 281 282 282 282
302 297 294 293 293 292 290 290 289 288 288 287 286 283 280 279 280 279 279 279 279 279 278 278 278 278 278 278 278 279 280 280 280 280 280 281 282 282
299 295 293 291 290 289 288 288 288 288 286 282 280 279 279 279 278 278 278 278 278 278 278 277 277 278 278 278 279 279 279 279 279 278 279 280 282 282
292 291 288 288 288 287 287 285 284 282 280 279 279 278 278 278 277 277 277 278 278 277 277 277 277 278 278 280 279 278 278 277 277 277 278 279 281 282
289 287 287 286 285 285 285 283 280 279 279 278 278 278 278 277 277 277 277 277 277 277 277 277 277 277 277 278 278 278 279 278 278 278 278 279 280 283
286 285 285 284 282 281 279 278 277 277 278 277 277 277 276 276 276 276 276 277 276 276 277 277 276 276 276 276 275 278 278 278 278 280 280 281 281 282
282 282 282 281 279 277 278 277 278 277 277 277 277 276 276 276 276 276 276 275 276 276 276 276 275 276 276 276 276 277 278 278 278 279 280 280 280 281
279 279 278 278 278 278 278 278 277 277 276 276 276 276 276 275 275 275 275 275 275 275 275 275 275 275 276 276 276 276 277 278 279 279 280 280 281 280
279 279 278 277 277 277 276 276 276 276 275 275 275 275 275 274 274 274 274 274 274 274 274 274 274 275 276 276 276 276 277 277 278 279 280 281 281 281

GFSNE_850_thetae_120.txt.gz
Theta_e
325 324 323 323 322 321 322 322 321 321 320 321 322 321 322 322 322 321 318 317 317 317 316 317 317 317 318 317 317 317 316 314 313 313 312 311 311 309
325 324 321 324 320 322 321 320 321 320 321 321 321 321 322 322 319 317 317 317 316 316 316 316 316 316 317 316 315 315 314 314 312 311 308 305 303 303
325 324 322 321 317 322 321 320 321 320 321 321 321 321 320 318 317 317 317 316 316 315 315 315 316 316 315 315 314 311 309 308 307 304 303 302 301 297
324 324 322 320 317 321 320 320 319 321 319 320 320 318 317 317 317 317 316 315 315 315 314 316 315 315 314 312 309 304 304 302 301 300 300 294 287 286
324 323 323 320 319 321 321 315 318 319 319 319 318 318 317 317 317 316 315 314 314 314 314 315 315 311 308 304 301 300 300 299 299 291 286 286 285 284
323 323 320 320 321 321 319 318 318 317 316 313 313 313 313 314 314 315 315 314 313 312 313 310 308 302 300 300 299 298 298 293 291 285 285 284 283 283
322 323 321 321 322 320 320 319 318 316 313 312 312 313 313 313 314 315 314 313 312 309 308 302 301 299 298 298 296 295 293 286 284 283 283 283 282 282
319 317 317 317 315 318 319 318 317 316 312 314 316 316 315 315 316 315 315 312 306 305 302 298 296 296 295 294 292 287 284 282 283 282 282 282 282 282
316 317 317 319 320 320 317 315 313 313 317 317 317 316 316 316 316 316 313 309 305 301 297 295 294 293 292 290 287 283 281 281 281 282 282 282 281 282
312 311 314 316 312 314 315 314 314 311 315 317 318 317 317 316 315 313 311 305 299 296 294 293 292 291 288 285 282 282 281 282 282 282 281 281 282 283
318 319 320 318 314 313 312 314 313 314 314 316 316 316 315 315 314 310 304 300 295 292 291 292 291 285 282 281 281 280 281 281 281 281 281 282 283 283
318 318 317 317 317 317 316 315 314 313 313 312 310 310 309 306 303 299 297 296 295 291 291 290 284 282 282 281 280 280 280 281 281 281 281 282 283 283
318 318 318 317 317 315 315 312 311 310 305 303 300 299 298 295 293 292 292 291 291 290 286 282 281 281 281 281 280 280 281 281 281 281 281 282 282 282
318 317 316 316 313 309 308 307 305 303 301 298 296 294 292 291 290 290 290 289 284 281 280 280 281 280 280 280 281 280 281 281 281 281 281 282 282 282
314 312 311 310 305 303 300 300 299 297 296 295 294 292 291 291 290 284 281 280 280 279 279 279 280 280 280 280 280 280 280 280 281 281 282 282 283 282
310 307 299 297 297 297 295 294 293 293 292 292 291 289 288 284 281 280 279 279 279 279 279 279 279 279 279 279 279 280 280 279 280 281 281 282 283 282
302 299 298 296 294 291 289 289 289 289 289 288 288 285 281 280 279 279 279 279 279 279 279 278 278 279 279 279 279 279 279 280 281 281 281 282 282 282
295 295 291 290 289 287 288 286 287 287 286 284 283 281 279 279 278 278 279 279 278 278 278 278 278 278 278 279 279 279 279 280 281 281 281 282 282 282
292 289 288 288 287 286 286 286 284 282 281 280 279 278 278 278 278 278 278 278 277 277 277 277 278 277 277 277 277 277 279 279 280 281 281 281 281 282
287 286 286 286 285 285 283 281 280 278 278 278 278 277 278 278 278 278 278 277 277 277 277 277 277 276 277 277 277 277 277 278 279 280 280 281 281 281
284 284 284 283 282 281 281 279 278 278 278 278 278 278 278 277 277 277 276 276 276 277 276 276 276 276 276 276 276 276 277 278 278 279 280 280 280 281
281 282 281 280 280 279 278 278 278 278 277 277 277 277 277 276 276 276 276 276 276 275 275 275 275 275 276 276 276 276 276 277 278 279 279 279 280 280
280 279 279 279 278 277 277 277 277 277 277 276 276 276 276 276 276 275 275 275 274 274 274 275 274 275 275 276 276 276 276 277 278 278 279 279 280 281

GFSNE_850_thetae_123.txt.gz
Theta_e
327 325 322 322 321 322 322 322 319 320 320 320 319 319 319 319 320 320 321 320 320 317 317 316 316 316 316 316 317 317 317 315 314 313 313 313 311 309
325 326 325 321 320 322 322 322 321 320 319 320 319 319 319 319 320 321 321 321 318 317 316 315 315 315 315 316 316 315 314 314 311 310 310 309 305 303
326 326 325 323 322 322 323 322 322 322 320 320 320 320 320 320 320 321 321 319 317 316 315 315 315 315 314 315 316 314 312 309 307 305 303 301 300 297
325 324 324 322 321 322 322 322 321 321 319 319 321 320 320 320 320 319 317 317 317 316 316 315 314 314 314 314 313 310 307 304 301 300 298 293 287 286
324 324 325 324 323 322 322 319 321 321 320 320 320 321 320 320 319 318 317 317 316 315 314 314 314 313 314 310 306 302 301 299 297 295 290 286 285 285
322 323 324 324 323 320 317 320 321 320 320 320 320 319 320 319 317 317 317 315 314 314 313 312 311 309 307 301 299 299 298 296 295 287 285 285 284 283
320 323 323 323 322 321 319 318 319 318 316 319 320 319 319 318 317 315 313 313 313 312 310 308 302 300 298 296 296 296 294 288 284 284 283 283 283 283
321 321 322 323 323 321 318 318 320 319 317 317 316 314 313 313 313 312 313 311 309 309 307 301 298 297 296 294 293 293 288 283 282 282 282 283 282 282
322 322 322 322 321 319 320 320 319 318 317 316 316 314 314 313 315 315 314 312 311 307 302 297 294 293 292 291 291 285 281 282 282 282 282 282 282 283
319 318 320 322 321 320 318 318 315 313 314 315 314 314 313 317 316 316 315 314 305 301 297 294 291 291 290 289 284 282 281 281 282 282 282 282 283 283
316 318 318 318 315 314 317 317 317 316 315 313 312 312 314 316 316 315 313 310 300 295 292 292 289 289 288 285 283 281 281 282 282 282 282 282 283 283
313 314 317 315 316 315 316 315 314 313 315 314 314 313 313 314 313 311 305 303 299 293 292 292 290 289 283 282 281 280 281 281 281 281 282 282 283 282
317 316 317 316 316 316 315 315 315 314 313 312 310 308 305 303 301 300 297 294 296 296 292 291 289 285 282 281 280 280 280 281 281 281 282 282 282 282
318 316 316 316 315 313 312 311 310 309 307 304 301 300 298 296 295 294 293 293 293 292 289 284 282 281 281 280 281 281 280 281 281 281 281 282 282 282
316 315 315 313 310 307 304 303 302 301 300 298 297 296 294 292 291 291 290 288 285 282 282 281 281 281 281 280 280 280 280 280 281 281 281 281 282 282
311 308 306 303 300 301 300 299 298 297 297 296 294 291 290 290 289 288 286 282 281 280 280 280 280 280 280 280 280 280 280 280 280 281 281 281 282 282
307 301 298 299 299 297 294 293 293 292 292 292 291 290 289 286 282 279 279 279 280 280 279 279 279 279 279 280 280 279 279 279 280 281 282 281 282 282
299 297 296 293 290 290 290 289 289 289 290 289 289 287 284 281 280 279 279 280 280 279 279 278 278 278 279 279 279 278 279 280 280 281 281 282 282 282
295 291 290 290 288 288 288 288 288 287 287 285 283 280 279 279 279 280 279 279 278 278 278 278 278 278 278 278 277 278 279 279 280 281 281 281 281 281
290 289 288 287 287 287 286 285 285 283 281 280 279 279 279 279 279 278 278 278 277 277 277 277 277 277 277 277 277 277 277 277 279 280 280 280 281 281
286 285 285 286 286 285 284 283 281 280 279 279 279 279 278 278 278 277 277 277 277 277 277 277 277 276 276 277 276 277 277 277 277 278 279 280 280 281
285 285 284 284 283 281 280 279 279 278 278 278 278 278 278 277 277 277 277 277 276 276 276 276 276 276 276 276 276 276 276 276 277 278 278 278 279 279
283 282 281 280 279 279 278 278 278 278 277 277 277 277 277 277 276 276 276 276 276 276 276 275 275 275 275 275 275 275 275 276 277 277 278 278 279 280

GFSNE_850_thetae_126.txt.gz
Theta_e
326 327 326 327 325 322 321 321 320 319 320 320 320 320 320 319 319 319 319 319 318 320 321 319 317 317 317 316 315 315 316 316 316 315 314 312 310 308
326 326 326 325 324 323 321 320 320 320 319 320 320 320 320 319 319 319 319 318 318 321 320 317 316 316 315 315 314 315 315 315 314 312 309 307 306 305
326 326 324 325 323 324 321 321 320 320 319 319 320 319 319 319 319 319 319 320 320 320 318 316 316 315 315 314 314 314 314 313 311 307 305 304 301 300
325 326 325 324 324 324 323 322 322 321 319 319 320 320 319 319 319 319 319 319 319 319 316 316 315 315 314 314 313 313 312 306 305 302 300 298 295 292
323 325 325 325 325 323 323 321 322 322 320 320 320 319 319 319 319 320 319 319 319 318 316 314 315 313 313 312 309 306 304 301 300 298 297 293 287 286
323 323 323 324 324 324 324 320 321 322 321 321 320 319 319 319 319 319 319 319 318 315 314 312 313 311 311 308 302 301 300 298 296 294 287 285 285 284
320 320 321 324 323 324 323 320 320 321 321 320 320 319 319 320 320 318 319 316 313 313 313 310 309 306 305 299 298 297 296 295 287 286 285 284 283 283
319 320 321 321 323 323 322 320 321 320 318 320 320 319 320 320 319 319 317 315 312 312 310 307 304 300 297 297 295 294 294 289 283 284 285 283 283 282
320 320 321 322 322 323 323 322 318 318 320 319 318 319 319 319 319 319 317 315 313 312 308 303 298 295 294 293 291 291 289 288 286 282 282 282 282 282
320 320 321 321 321 321 320 321 319 319 319 318 318 318 317 317 316 316 314 313 311 307 304 299 296 292 291 291 290 291 289 284 282 282 282 282 282 283
318 319 317 319 321 322 321 320 319 318 319 318 317 317 316 315 316 316 315 313 309 301 297 295 292 289 288 287 288 286 281 281 282 282 282 282 283 283
317 317 316 315 317 318 320 319 319 318 319 318 317 315 314 313 312 312 311 313 306 297 294 292 290 289 286 285 286 282 281 281 282 282 282 282 282 282
318 314 316 318 315 318 315 317 316 316 315 314 314 313 312 311 309 308 306 304 301 299 295 292 290 288 288 285 281 281 280 280 281 281 282 282 282 282
317 317 316 315 315 316 314 314 314 314 313 311 308 307 305 304 303 301 299 296 295 295 293 291 291 289 288 284 282 281 280 280 281 281 281 281 282 282
316 316 316 315 314 313 312 310 310 308 307 305 303 301 299 298 297 295 293 292 292 291 290 289 286 286 281 281 281 281 280 280 281 281 281 281 281 282
314 313 312 312 310 307 304 303 302 302 302 301 300 297 294 293 292 292 292 290 289 286 282 281 280 280 280 280 280 280 280 281 280 281 281 281 281 282
305 302 301 300 301 300 299 299 298 296 297 296 295 294 292 291 290 286 284 283 283 280 280 280 280 280 280 280 280 280 280 279 280 281 281 281 281 281
301 302 300 297 299 296 294 293 293 293 293 292 292 291 289 287 283 281 280 280 280 279 279 279 279 279 279 279 279 279 278 279 280 280 281 281 281 281
299 297 293 291 291 291 292 291 290 290 290 289 289 287 283 281 280 280 280 280 279 279 279 279 279 279 279 278 278 278 278 279 279 280 280 281 281 281
293 292 291 290 289 289 289 288 288 288 287 285 282 281 280 280 280 279 279 279 279 279 279 279 278 278 278 278 277 277 277 277 278 279 280 280 281 281
289 289 289 289 288 288 288 287 286 283 281 280 279 279 279 279 279 278 278 278 278 278 278 278 277 277 277 277 277 277 277 277 277 277 277 279 280 281
287 288 287 286 286 285 284 282 280 280 280 279 279 279 278 278 278 278 278 277 277 277 277 277 276 276 276 276 276 276 276 276 276 277 277 278 278 279
285 285 284 283 282 281 280 280 279 279 279 278 278 278 278 278 277 277 277 277 276 276 276 275 275 275 275 275 275 275 275 275 276 277 277 277 277 278

GFSNE_850_thetae_132.txt.gz
Theta_e
325 325 326 326 326 326 327 326 324 321 321 321 322 323 321 317 318 318 314 317 319 314 309 309 311 311 313 315 316 317 317 316 315 315 314 314 313 313
326 324 324 325 326 326 326 326 325 324 321 321 322 323 321 319 317 319 317 317 319 319 317 317 317 316 317 317 317 318 316 316 315 314 313 313 312 311
324 324 323 324 325 325 325 325 325 324 323 321 321 322 320 319 318 319 320 319 319 319 319 319 319 319 318 319 319 317 316 315 314 314 311 311 310 309
323 323 323 324 322 323 326 324 323 323 324 321 321 320 320 319 316 319 320 319 319 319 320 319 319 319 318 318 318 316 315 314 312 312 310 308 307 306
325 324 323 324 323 324 323 323 324 322 323 322 321 320 320 320 315 318 320 319 319 319 319 319 318 319 318 318 316 316 314 314 312 309 306 305 303 301
324 322 322 323 322 323 324 323 323 323 322 320 321 320 320 318 316 319 319 319 319 319 318 318 317 318 316 316 316 313 312 312 310 304 305 302 299 294
322 322 321 321 323 322 321 322 323 323 322 320 320 320 319 318 317 318 317 318 317 317 317 316 315 315 313 313 312 313 309 308 305 302 300 298 292 288
319 318 318 319 319 320 319 320 320 320 323 319 319 320 320 319 318 318 318 317 313 315 314 312 312 311 309 309 308 309 305 303 300 297 296 292 290 289
317 318 319 319 319 319 320 320 320 321 321 322 320 320 320 319 319 318 317 317 317 315 314 308 309 308 305 305 306 305 302 298 296 295 294 293 291 284
317 320 318 320 319 320 320 319 319 320 320 322 321 322 320 319 319 318 319 317 316 313 312 307 308 304 301 301 301 299 295 293 293 293 292 287 283 283
316 320 318 318 318 318 319 320 320 320 321 320 319 320 320 320 319 319 318 314 313 308 306 305 306 301 299 296 294 291 291 291 291 291 287 284 284 283
319 319 318 319 318 317 318 316 319 319 319 320 316 317 318 318 315 317 318 316 315 308 306 304 302 300 294 290 289 290 289 289 290 289 286 284 282 282
319 319 319 319 317 316 316 315 316 318 316 316 317 316 318 316 316 315 316 315 315 310 308 305 303 298 294 291 288 288 288 288 289 287 284 282 282 282
318 318 318 318 317 317 315 314 314 314 315 316 317 316 315 315 313 310 308 309 306 305 306 303 300 297 294 291 289 287 286 287 287 282 281 282 282 282
316 317 317 317 316 316 315 315 314 312 313 313 312 310 307 306 305 303 302 303 302 300 299 298 296 295 292 293 292 289 286 286 282 281 281 281 281 281
313 313 312 313 314 313 312 311 310 310 310 309 308 307 304 302 300 300 301 300 299 296 292 291 292 291 290 290 289 288 285 281 281 281 281 281 281 281
304 306 303 304 305 307 305 303 303 303 303 303 303 301 299 297 296 294 295 294 296 292 291 289 288 287 283 282 281 281 281 281 280 280 280 280 281 281
299 301 299 298 301 300 299 298 297 298 297 297 295 295 295 294 293 292 292 292 292 289 287 283 281 281 281 280 280 280 280 280 279 279 280 280 280 281
297 296 295 295 294 293 294 293 293 293 293 293 292 291 290 290 290 288 285 284 282 281 280 280 280 280 281 280 280 279 279 279 278 278 278 278 279 280
293 292 292 292 292 291 291 291 290 290 290 290 289 289 288 286 283 281 280 281 280 280 280 279 279 279 279 279 279 278 278 277 277 277 278 278 278 278
290 289 289 289 289 289 289 289 289 289 288 288 287 284 281 281 280 280 280 279 279 279 279 278 278 278 278 278 277 277 277 277 277 277 277 277 278 278
288 288 287 288 288 288 287 287 287 286 285 283 281 280 280 280 279 279 279 279 278 278 278 278 277 277 277 277 276 276 276 276 276 275 275 276 276 277
286 286 286 286 286 285 285 284 282 280 280 280 280 279 279 279 278 278 278 278 278 277 277 277 276 276 276 276 276 276 275 275 276 276 275 275 276 276

GFSNE_850_thetae_135.txt.gz
Theta_e
329 328 327 326 326 327 326 326 326 324 324 324 324 324 323 323 320 320 316 313 315 313 311 310 312 314 317 316 317 318 320 318 316 317 315 315 314 314
331 330 329 326 325 325 326 326 326 326 324 323 324 323 323 323 322 322 316 316 317 314 311 311 310 311 315 315 316 316 316 316 317 316 315 314 314 313
330 329 328 326 324 324 324 325 326 325 325 324 323 322 322 322 322 322 318 316 315 313 315 318 313 310 311 313 313 315 316 317 318 316 315 314 312 312
330 329 327 324 323 324 323 324 323 325 325 322 323 323 322 322 322 322 318 315 315 314 316 319 318 316 314 315 316 317 317 318 317 316 314 313 311 309
329 326 324 323 323 323 323 323 323 323 323 322 322 323 322 322 321 321 320 315 316 318 318 318 318 318 318 318 318 318 317 317 316 315 314 313 310 306
322 322 323 324 323 322 323 322 322 322 323 324 323 322 322 322 320 320 320 319 317 317 319 318 319 319 318 318 318 318 316 316 315 312 313 311 306 303
323 323 322 323 322 321 323 323 321 323 323 321 321 320 321 320 320 320 318 319 316 317 318 318 318 319 316 318 317 316 315 313 311 312 309 308 302 299
323 322 321 321 321 320 320 320 320 320 320 320 321 320 321 321 320 319 318 316 314 315 315 317 315 317 317 315 315 313 311 310 308 307 308 302 299 295
319 319 319 318 318 318 319 319 319 319 319 319 320 320 320 321 321 319 318 316 315 315 312 314 308 310 311 309 308 307 307 305 306 303 299 297 295 292
318 317 317 317 317 318 320 320 320 319 320 320 320 320 320 320 321 320 318 315 315 313 312 310 310 306 306 304 301 302 303 301 299 296 296 294 292 291
318 317 317 318 319 318 318 318 318 319 320 320 319 320 319 320 319 315 311 314 313 312 311 310 308 303 300 299 297 298 298 296 295 294 293 291 291 285
318 318 318 318 318 318 318 318 318 318 319 318 318 319 317 314 313 313 314 315 312 309 308 305 305 303 296 295 294 292 291 291 291 291 290 290 286 283
319 319 319 319 319 319 318 316 316 315 315 317 316 314 314 313 313 310 309 310 312 313 314 309 306 304 300 294 289 288 289 289 289 288 289 287 284 282
318 318 318 318 318 318 317 317 315 313 314 315 314 313 311 312 311 310 306 307 308 308 310 308 309 304 299 293 289 287 287 287 286 286 286 283 282 282
315 317 317 317 316 316 316 316 314 313 313 314 312 311 308 308 306 306 305 305 303 301 302 302 300 299 297 296 294 288 285 285 285 287 284 281 281 282
309 309 309 309 310 312 311 310 309 308 310 310 309 307 304 302 300 300 301 300 300 299 296 294 295 294 292 292 292 289 286 286 286 283 281 281 281 281
303 304 306 305 305 305 305 303 302 302 303 303 303 301 299 298 298 296 296 296 297 292 290 290 288 289 289 289 288 286 286 283 281 281 281 281 280 281
301 301 301 300 300 299 298 298 299 298 298 298 296 296 294 294 294 293 293 293 291 288 288 287 288 288 285 282 282 282 281 281 280 280 280 280 280 280
298 297 296 296 294 294 295 293 294 293 292 293 292 292 292 291 291 291 290 290 288 288 285 282 281 281 281 281 280 280 280 279 279 279 279 279 279 279
293 292 292 292 291 291 290 290 291 290 290 290 290 290 290 290 289 288 286 284 282 281 281 280 280 280 280 281 280 279 278 278 278 278 278 278 278 278
289 289 289 289 289 289 289 289 289 289 288 288 287 288 285 283 282 281 281 281 281 280 280 279 279 279 279 279 278 278 278 277 277 277 278 278 278 278
288 288 287 287 288 288 288 287 287 287 287 287 284 281 282 283 282 281 280 279 279 279 279 278 278 278 278 278 277 277 276 276 276 276 277 277 277 277
286 286 287 286 285 285 285 286 286 283 281 280 280 279 279 279 279 279 279 279 278 278 278 278 277 277 277 277 277 276 276 276 275 275 275 276 276 276